FW4770 Weather Reports


Display with metric or nautical units.
time (UTC)temp
F
wind
direction
speed
MPH
gust
MPH
rain 1hr
in
rain 24hr
in
rain mn
in
humidity
%
barometer
mb
20260508213318 70 305 12.0 18.0 0.00 0.00 0.00 30 1002.7
20260508213222 70 342 11.0 18.0 0.00 0.00 0.00 29 1002.8
20260508213145 70 360 11.0 18.0 0.00 0.00 0.00 29 1002.8
20260508213048 69 329 11.0 18.0 0.00 0.00 0.00 30 1002.7
20260508212914 69 313 11.0 19.0 0.00 0.00 0.00 31 1002.7
20260508212819 69 310 10.0 19.0 0.00 0.00 0.00 32 1002.8
20260508212742 69 327 9.0 19.0 0.00 0.00 0.00 30 1002.7
20260508212625 69 305 12.0 20.0 0.00 0.00 0.00 32 1002.6
20260508212528 69 315 13.0 21.0 0.00 0.00 0.00 30 1002.6
20260508212411 69 300 12.0 21.0 0.00 0.00 0.00 29 1002.6
20260508212334 69 339 12.0 21.0 0.00 0.00 0.00 29 1002.7
20260508212217 69 332 12.0 21.0 0.00 0.00 0.00 29 1002.7
20260508212107 70 283 11.0 21.0 0.00 0.00 0.00 30 1002.8
20260508212010 70 338 13.0 21.0 0.00 0.00 0.00 28 1002.7
20260508211915 70 285 13.0 21.0 0.00 0.00 0.00 28 1002.6
20260508211820 70 347 13.0 21.0 0.00 0.00 0.00 28 1003.2
20260508211742 70 355 13.0 21.0 0.00 0.00 0.00 29 1002.7
20260508211625 70 303 14.0 20.0 0.00 0.00 0.00 28 1002.8
20260508211513 70 333 12.0 20.0 0.00 0.00 0.00 29 1002.7
20260508211416 70 325 12.0 20.0 0.00 0.00 0.00 31 1002.8
20260508211321 70 314 12.0 20.0 0.00 0.00 0.00 29 1002.8
20260508211207 70 360 11.0 20.0 0.00 0.00 0.00 29 1002.9
20260508211110 70 343 12.0 20.0 0.00 0.00 0.00 31 1002.8
20260508211015 70 341 13.0 20.0 0.00 0.00 0.00 29 1002.8
20260508210925 70 300 13.0 19.0 0.00 0.00 0.00 30 1002.8
20260508210809 70 290 12.0 19.0 0.00 0.00 0.00 30 1002.9
20260508210732 70 296 10.0 19.0 0.00 0.00 0.00 30 1002.6
20260508210609 70 314 12.0 19.0 0.00 0.00 0.00 31 1002.8
20260508210514 70 318 13.0 19.0 0.00 0.00 0.00 29 1003.0
20260508210417 70 315 11.0 19.0 0.00 0.00 0.00 29 1003.0
20260508210343 70 342 9.0 18.0 0.00 0.00 0.00 31 1003.0
20260508210226 70 326 7.0 18.0 0.00 0.00 0.00 33 1003.0
20260508210109 70 311 9.0 20.0 0.00 0.00 0.00 32 1003.0
20260508210012 70 300 10.0 20.0 0.00 0.00 0.00 31 1003.0
20260508205915 70 285 10.0 22.0 0.00 0.00 0.00 30 1003.0
20260508205839 70 275 11.0 22.0 0.00 0.00 0.00 30 1003.1
20260508205720 70 298 10.0 22.0 0.00 0.00 0.00 31 1003.1
20260508205626 70 285 12.0 22.0 0.00 0.00 0.00 30 1003.2
20260508205510 70 306 14.0 22.0 0.00 0.00 0.00 30 1003.2
20260508205412 70 311 13.0 22.0 0.00 0.00 0.00 29 1003.1
20260508205315 70 5 13.0 22.0 0.00 0.00 0.00 30 1003.3
20260508205218 70 11 13.0 22.0 0.00 0.00 0.00 31 1003.3
20260508205141 69 300 13.0 22.0 0.00 0.00 0.00 33 1003.2
20260508205006 69 298 7.0 15.0 0.00 0.00 0.00 33 1003.2
20260508204911 69 304 7.0 15.0 0.00 0.00 0.00 29 1003.3
20260508204813 69 15 10.0 15.0 0.00 0.00 0.00 30 1003.3
20260508204716 69 345 11.0 16.0 0.00 0.00 0.00 31 1003.2
20260508204619 69 294 11.0 16.0 0.00 0.00 0.00 31 1003.2
20260508204522 69 340 8.0 16.0 0.00 0.00 0.00 32 1003.3
20260508204444 68 11 7.0 16.0 0.00 0.00 0.00 31 1003.3
20260508204331 68 13 6.0 16.0 0.00 0.00 0.00 30 1003.4
20260508204206 68 335 9.0 16.0 0.00 0.00 0.00 31 1003.4
20260508204130 68 343 12.0 16.0 0.00 0.00 0.00 29 1003.4
20260508204011 68 338 12.0 16.0 0.00 0.00 0.00 30 1003.5
20260508203915 68 344 10.0 15.0 0.00 0.00 0.00 29 1003.5
20260508203818 68 5 9.0 15.0 0.00 0.00 0.00 30 1003.5
20260508203720 68 323 11.0 15.0 0.00 0.00 0.00 32 1003.5
20260508203606 69 320 13.0 15.0 0.00 0.00 0.00 30 1003.5
20260508203510 69 301 11.0 18.0 0.00 0.00 0.00 32 1003.5
20260508203413 69 298 9.0 20.0 0.00 0.00 0.00 30 1003.5
20260508203336 69 309 9.0 20.0 0.00 0.00 0.00 31 1003.6
20260508203219 69 336 8.0 20.0 0.00 0.00 0.00 30 1003.6
20260508203122 69 344 9.0 20.0 0.00 0.00 0.00 31 1003.6
20260508203010 69 338 9.0 20.0 0.00 0.00 0.00 31 1003.6
20260508202932 69 335 8.0 20.0 0.00 0.00 0.00 31 1003.5
20260508202808 69 296 11.0 20.0 0.00 0.00 0.00 29 1003.4
20260508202731 69 290 14.0 20.0 0.00 0.00 0.00 29 1003.6
20260508202613 69 278 13.0 20.0 0.00 0.00 0.00 30 1003.6
20260508202515 69 293 10.0 17.0 0.00 0.00 0.00 33 1003.6
20260508202418 69 341 10.0 15.0 0.00 0.00 0.00 29 1003.7
20260508202326 69 324 8.0 15.0 0.00 0.00 0.00 30 1003.7
20260508202228 69 9 10.0 17.0 0.00 0.00 0.00 31 1003.6
20260508202111 69 299 12.0 17.0 0.00 0.00 0.00 29 1003.6
20260508202014 70 284 12.0 17.0 0.00 0.00 0.00 30 1003.6
20260508201938 70 282 10.0 17.0 0.00 0.00 0.00 29 1003.7
20260508201819 70 355 7.0 17.0 0.00 0.00 0.00 30 1003.8
20260508201744 70 298 8.0 17.0 0.00 0.00 0.00 32 1003.8
20260508201630 70 328 11.0 19.0 0.00 0.00 0.00 28 1003.8
20260508201506 70 342 13.0 19.0 0.00 0.00 0.00 30 1003.9
20260508201409 70 329 10.0 19.0 0.00 0.00 0.00 29 1003.8
20260508201311 70 321 11.0 19.0 0.00 0.00 0.00 34 1003.9
20260508201215 69 360 11.0 24.0 0.00 0.00 0.00 30 1003.8
20260508201117 69 280 8.0 24.0 0.00 0.00 0.00 32 1003.8
20260508201024 69 360 10.0 24.0 0.00 0.00 0.00 32 1003.9
20260508200930 69 344 11.0 24.0 0.00 0.00 0.00 30 1003.9
20260508200805 69 303 10.0 24.0 0.00 0.00 0.00 29 1003.8
20260508200729 69 355 12.0 24.0 0.00 0.00 0.00 33 1003.8
20260508200612 69 360 15.0 24.0 0.00 0.00 0.00 30 1004.0
20260508200534 69 306 17.0 24.0 0.00 0.00 0.00 33 1003.8
20260508200418 69 290 14.0 24.0 0.00 0.00 0.00 33 1003.9
20260508200325 69 277 11.0 19.0 0.00 0.00 0.00 34 1003.8
20260508200227 69 300 11.0 20.0 0.00 0.00 0.00 32 1003.8
20260508200108 69 294 11.0 20.0 0.00 0.00 0.00 31 1003.9
20260508200013 69 290 13.0 20.0 0.00 0.00 0.00 29 1003.9
20260508195936 69 262 14.0 20.0 0.00 0.00 0.00 31 1004.0
20260508195839 69 289 11.0 20.0 0.00 0.00 0.00 32 1004.0
20260508195740 69 300 11.0 20.0 0.00 0.00 0.00 32 1004.0
20260508195624 69 290 12.0 20.0 0.00 0.00 0.00 32 1004.0
20260508195530 69 290 12.0 20.0 0.00 0.00 0.00 29 1004.1
20260508195406 69 331 9.0 17.0 0.00 0.00 0.00 33 1004.0
20260508195310 69 330 8.0 17.0 0.00 0.00 0.00 32 1004.1
20260508195211 69 293 10.0 17.0 0.00 0.00 0.00 33 1004.0
20260508195115 69 338 11.0 17.0 0.00 0.00 0.00 30 1004.0
20260508195017 69 360 8.0 18.0 0.00 0.00 0.00 31 1004.1
20260508194925 69 321 7.0 18.0 0.00 0.00 0.00 31 1004.2
20260508194809 69 281 7.0 18.0 0.00 0.00 0.00 30 1004.2
20260508194732 69 293 7.0 18.0 0.00 0.00 0.00 32 1004.2
20260508194608 68 315 6.0 18.0 0.00 0.00 0.00 31 1004.2
20260508194511 68 35 8.0 18.0 0.00 0.00 0.00 31 1004.2
20260508194415 68 29 11.0 18.0 0.00 0.00 0.00 30 1004.2
20260508194338 68 323 11.0 18.0 0.00 0.00 0.00 29 1004.3
20260508194243 68 342 11.0 18.0 0.00 0.00 0.00 31 1004.4
20260508194109 68 324 10.0 17.0 0.00 0.00 0.00 32 1004.3
20260508194032 68 307 10.0 17.0 0.00 0.00 0.00 32 1004.3
20260508193910 68 275 10.0 17.0 0.00 0.00 0.00 33 1004.3
20260508193813 68 300 9.0 17.0 0.00 0.00 0.00 34 1004.3
20260508193738 68 300 10.0 17.0 0.00 0.00 0.00 31 1004.3
20260508193619 68 302 9.0 21.0 0.00 0.00 0.00 30 1004.3
20260508193506 68 340 8.0 21.0 0.00 0.00 0.00 32 1004.3
20260508193432 68 301 8.0 21.0 0.00 0.00 0.00 35 1004.4
20260508193308 68 271 10.0 21.0 0.00 0.00 0.00 33 1004.4
20260508193233 68 265 10.0 21.0 0.00 0.00 0.00 31 1004.5
20260508193109 68 304 7.0 21.0 0.00 0.00 0.00 33 1004.4
20260508193013 68 306 9.0 21.0 0.00 0.00 0.00 33 1004.5
20260508192917 68 310 14.0 21.0 0.00 0.00 0.00 32 1004.5
20260508192806 68 291 15.0 21.0 0.00 0.00 0.00 30 1004.5
20260508192730 68 278 14.0 19.0 0.00 0.00 0.00 30 1004.4
20260508192607 68 287 12.0 18.0 0.00 0.00 0.00 33 1004.5
20260508192510 68 297 11.0 16.0 0.00 0.00 0.00 33 1004.4
20260508192435 67 264 8.0 15.0 0.00 0.00 0.00 32 1004.4
20260508192339 67 343 7.0 15.0 0.00 0.00 0.00 33 1004.5
20260508192206 67 290 6.0 15.0 0.00 0.00 0.00 31 1004.6
20260508192131 67 302 6.0 15.0 0.00 0.00 0.00 31 1004.6
20260508192009 67 302 8.0 16.0 0.00 0.00 0.00 32 1004.6
20260508191933 67 303 9.0 16.0 0.00 0.00 0.00 32 1004.6
20260508191809 67 308 9.0 16.0 0.00 0.00 0.00 35 1004.6
20260508191713 67 303 9.0 16.0 0.00 0.00 0.00 34 1004.6
20260508191618 67 300 9.0 16.0 0.00 0.00 0.00 35 1004.5
20260508191525 67 315 9.0 16.0 0.00 0.00 0.00 32 1004.6
20260508191410 67 293 10.0 16.0 0.00 0.00 0.00 31 1004.6
20260508191314 67 321 12.0 16.0 0.00 0.00 0.00 33 1004.6
20260508191218 67 296 11.0 16.0 0.00 0.00 0.00 34 1004.6
20260508191143 67 298 11.0 16.0 0.00 0.00 0.00 31 1004.7
20260508191027 67 300 12.0 16.0 0.00 0.00 0.00 33 1004.7
20260508190913 67 294 11.0 16.0 0.00 0.00 0.00 31 1004.7
20260508190817 67 297 9.0 15.0 0.00 0.00 0.00 33 1004.7
20260508190740 67 315 8.0 15.0 0.00 0.00 0.00 32 1004.8
20260508190624 67 304 7.0 16.0 0.00 0.00 0.00 33 1004.8
20260508190546 67 348 8.0 16.0 0.00 0.00 0.00 31 1004.8
20260508190431 67 318 8.0 16.0 0.00 0.00 0.00 32 1004.8
20260508190313 67 310 6.0 16.0 0.00 0.00 0.00 32 1004.8
20260508190238 67 298 5.0 16.0 0.00 0.00 0.00 33 1004.7
20260508190125 67 17 5.0 16.0 0.00 0.00 0.00 31 1004.8
20260508190010 68 313 7.0 16.0 0.00 0.00 0.00 35 1004.7
20260508185914 67 296 7.0 16.0 0.00 0.00 0.00 31 1004.9
20260508185818 67 339 5.0 14.0 0.00 0.00 0.00 31 1004.9
20260508185723 67 355 6.0 14.0 0.00 0.00 0.00 32 1004.8
20260508185610 67 344 7.0 18.0 0.00 0.00 0.00 32 1004.8
20260508185536 67 355 5.0 18.0 0.00 0.00 0.00 33 1004.9
20260508185419 67 337 6.0 18.0 0.00 0.00 0.00 35 1004.9
20260508185322 67 36 7.0 18.0 0.00 0.00 0.00 32 1004.9
20260508185247 67 16 8.0 18.0 0.00 0.00 0.00 31 1004.9
20260508185110 67 33 8.0 18.0 0.00 0.00 0.00 35 1005.0
20260508185013 67 53 9.0 19.0 0.00 0.00 0.00 32 1004.9
20260508184921 67 360 11.0 19.0 0.00 0.00 0.00 34 1004.9
20260508184845 67 312 13.0 19.0 0.00 0.00 0.00 33 1004.9
20260508184708 67 300 9.0 19.0 0.00 0.00 0.00 32 1004.9
20260508184632 67 320 9.0 19.0 0.00 0.00 0.00 34 1004.9
20260508184509 67 279 11.0 19.0 0.00 0.00 0.00 35 1004.9
20260508184431 67 295 11.0 19.0 0.00 0.00 0.00 33 1004.9
20260508184333 67 298 12.0 19.0 0.00 0.00 0.00 32 1004.9
20260508184236 67 293 12.0 19.0 0.00 0.00 0.00 33 1004.9
20260508184123 67 306 11.0 19.0 0.00 0.00 0.00 32 1004.9
20260508184008 67 315 7.0 17.0 0.00 0.00 0.00 32 1004.9
20260508183911 67 333 8.0 17.0 0.00 0.00 0.00 30 1005.0
20260508183815 67 5 10.0 18.0 0.00 0.00 0.00 31 1005.0
20260508183718 67 323 8.0 18.0 0.00 0.00 0.00 31 1005.1
20260508183623 66 337 9.0 19.0 0.00 0.00 0.00 35 1005.0
20260508183530 66 360 9.0 19.0 0.00 0.00 0.00 32 1005.1
20260508183407 66 360 10.0 19.0 0.00 0.00 0.00 33 1005.2
20260508183330 66 344 10.0 19.0 0.00 0.00 0.00 36 1005.2
20260508183232 66 297 11.0 19.0 0.00 0.00 0.00 35 1005.0
20260508183115 66 278 13.0 19.0 0.00 0.00 0.00 31 1005.0
20260508183019 66 299 14.0 19.0 0.00 0.00 0.00 32 1005.0
20260508182920 66 293 15.0 19.0 0.00 0.00 0.00 33 1005.0
20260508182843 67 285 15.0 19.0 0.00 0.00 0.00 32 1005.1
20260508182730 67 306 15.0 18.0 0.00 0.00 0.00 32 1005.1
20260508182614 67 288 14.0 17.0 0.00 0.00 0.00 33 1005.1
20260508182517 67 295 13.0 17.0 0.00 0.00 0.00 33 1005.2
20260508182421 67 282 10.0 17.0 0.00 0.00 0.00 34 1005.2
20260508182324 67 270 9.0 15.0 0.00 0.00 0.00 33 1005.2
20260508182227 67 313 8.0 16.0 0.00 0.00 0.00 32 1005.4
20260508182110 67 5 7.0 19.0 0.00 0.00 0.00 34 1005.2
20260508182038 66 351 6.0 19.0 0.00 0.00 0.00 36 1005.3
20260508181921 66 355 7.0 20.0 0.00 0.00 0.00 33 1005.3
20260508181823 66 319 8.0 20.0 0.00 0.00 0.00 33 1005.3
20260508181706 66 262 10.0 22.0 0.00 0.00 0.00 31 1005.4
20260508181610 66 297 13.0 22.0 0.00 0.00 0.00 34 1005.3
20260508181513 66 323 14.0 22.0 0.00 0.00 0.00 34 1005.4
20260508181418 66 303 15.0 22.0 0.00 0.00 0.00 33 1005.4
20260508181306 66 302 14.0 22.0 0.00 0.00 0.00 30 1005.4
20260508181209 66 314 15.0 22.0 0.00 0.00 0.00 31 1005.3
20260508181133 66 304 16.0 22.0 0.00 0.00 0.00 34 1005.5
20260508181015 66 302 16.0 22.0 0.00 0.00 0.00 34 1005.4
20260508180918 66 306 17.0 22.0 0.00 0.00 0.00 32 1005.5
20260508180821 66 296 15.0 22.0 0.00 0.00 0.00 31 1005.5
20260508180708 66 290 12.0 21.0 0.00 0.00 0.00 32 1005.5
20260508180632 66 351 11.0 18.0 0.00 0.00 0.00 34 1005.5
20260508180513 66 323 12.0 18.0 0.00 0.00 0.00 34 1005.5
20260508180417 66 293 13.0 18.0 0.00 0.00 0.00 34 1005.6
20260508180341 66 302 12.0 18.0 0.00 0.00 0.00 34 1005.5
20260508180222 66 355 12.0 17.0 0.00 0.00 0.00 33 1005.6
20260508180123 67 292 11.0 17.0 0.00 0.00 0.00 33 1005.6
20260508180030 67 334 11.0 17.0 0.00 0.00 0.00 35 1005.5
20260508175907 67 334 11.0 17.0 0.00 0.00 0.00 34 1005.6
20260508175830 67 296 11.0 15.0 0.00 0.00 0.00 34 1005.6
20260508175706 67 289 8.0 15.0 0.00 0.00 0.00 34 1005.6
20260508175610 66 325 6.0 15.0 0.00 0.00 0.00 35 1005.7
20260508175512 66 309 8.0 15.0 0.00 0.00 0.00 32 1005.6
20260508175436 66 360 9.0 15.0 0.00 0.00 0.00 30 1005.8
20260508175322 66 344 9.0 15.0 0.00 0.00 0.00 32 1005.8
20260508175226 66 360 8.0 14.0 0.00 0.00 0.00 31 1005.7
20260508175128 66 332 7.0 15.0 0.00 0.00 0.00 35 1005.7
20260508175011 66 301 7.0 19.0 0.00 0.00 0.00 34 1005.8
20260508174935 65 322 6.0 19.0 0.00 0.00 0.00 38 1005.7
20260508174816 65 313 8.0 19.0 0.00 0.00 0.00 36 1005.7
20260508174718 65 288 9.0 19.0 0.00 0.00 0.00 32 1005.8
20260508174607 65 305 9.0 19.0 0.00 0.00 0.00 34 1005.9
20260508174529 65 313 8.0 19.0 0.00 0.00 0.00 34 1005.9
20260508174453 65 296 8.0 19.0 0.00 0.00 0.00 34 1005.8
20260508174308 65 296 10.0 19.0 0.00 0.00 0.00 33 1005.8
20260508174231 65 300 10.0 19.0 0.00 0.00 0.00 34 1005.9
20260508174115 65 311 11.0 19.0 0.00 0.00 0.00 33 1005.8
20260508174017 65 305 11.0 19.0 0.00 0.00 0.00 33 1005.8
20260508173925 65 317 10.0 18.0 0.00 0.00 0.00 33 1005.9
20260508173848 65 323 12.0 18.0 0.00 0.00 0.00 32 1005.9
20260508173728 65 300 14.0 18.0 0.00 0.00 0.00 33 1005.9
20260508173652 66 273 12.0 17.0 0.00 0.00 0.00 35 1006.0
20260508173507 65 290 9.0 14.0 0.00 0.00 0.00 35 1006.0
20260508173431 65 335 7.0 15.0 0.00 0.00 0.00 35 1006.0
20260508173333 65 343 5.0 15.0 0.00 0.00 0.00 33 1006.1
20260508173214 65 307 5.0 15.0 0.00 0.00 0.00 37 1005.9
20260508173121 65 5 5.0 15.0 0.00 0.00 0.00 34 1006.0
20260508173026 65 355 5.0 15.0 0.00 0.00 0.00 36 1006.1
20260508172910 65 317 5.0 15.0 0.00 0.00 0.00 34 1006.1
20260508172812 65 326 8.0 15.0 0.00 0.00 0.00 33 1006.1
20260508172716 65 333 8.0 15.0 0.00 0.00 0.00 32 1006.2
20260508172620 65 343 5.0 15.0 0.00 0.00 0.00 34 1006.2
20260508172547 65 9 5.0 15.0 0.00 0.00 0.00 32 1006.2
20260508172428 64 265 8.0 15.0 0.00 0.00 0.00 32 1006.1
20260508172310 64 290 7.0 15.0 0.00 0.00 0.00 35 1006.2
20260508172234 64 334 9.0 15.0 0.00 0.00 0.00 34 1006.2
20260508172116 64 340 8.0 15.0 0.00 0.00 0.00 33 1006.2
20260508172020 64 346 7.0 16.0 0.00 0.00 0.00 34 1006.3
20260508171922 64 21 8.0 16.0 0.00 0.00 0.00 35 1006.3
20260508171810 64 319 7.0 16.0 0.00 0.00 0.00 35 1006.3
20260508171734 64 294 6.0 16.0 0.00 0.00 0.00 36 1006.2
20260508171608 64 296 9.0 16.0 0.00 0.00 0.00 35 1006.2
20260508171511 64 297 9.0 16.0 0.00 0.00 0.00 36 1006.2
20260508171413 64 279 9.0 16.0 0.00 0.00 0.00 36 1006.4
20260508171318 64 284 10.0 16.0 0.00 0.00 0.00 36 1006.4
20260508171240 64 273 9.0 16.0 0.00 0.00 0.00 36 1006.4
20260508171106 64 297 6.0 16.0 0.00 0.00 0.00 37 1006.4
20260508171030 64 294 6.0 16.0 0.00 0.00 0.00 36 1006.4
20260508170912 63 355 9.0 16.0 0.00 0.00 0.00 39 1006.4
20260508170815 63 294 10.0 16.0 0.00 0.00 0.00 39 1006.4
20260508170718 63 290 11.0 16.0 0.00 0.00 0.00 36 1006.4
20260508170621 63 309 11.0 16.0 0.00 0.00 0.00 36 1006.4
20260508170507 63 269 10.0 16.0 0.00 0.00 0.00 33 1006.4
20260508170432 63 290 10.0 16.0 0.00 0.00 0.00 33 1006.5
20260508170307 63 239 12.0 15.0 0.00 0.00 0.00 34 1006.6
20260508170211 63 298 10.0 15.0 0.00 0.00 0.00 36 1006.6
20260508170113 63 295 8.0 15.0 0.00 0.00 0.00 36 1006.6
20260508170037 63 300 7.0 15.0 0.00 0.00 0.00 34 1006.6
20260508165939 63 292 6.0 15.0 0.00 0.00 0.00 35 1006.6
20260508165842 63 299 8.0 15.0 0.00 0.00 0.00 34 1006.6
20260508165708 63 287 9.0 15.0 0.00 0.00 0.00 37 1006.7
20260508165632 63 289 7.0 15.0 0.00 0.00 0.00 37 1006.7
20260508165509 63 360 7.0 13.0 0.00 0.00 0.00 36 1006.7
20260508165432 63 288 8.0 13.0 0.00 0.00 0.00 37 1006.8
20260508165315 63 288 8.0 13.0 0.00 0.00 0.00 36 1006.8
20260508165240 62 302 8.0 13.0 0.00 0.00 0.00 37 1006.7
20260508165142 62 348 7.0 16.0 0.00 0.00 0.00 36 1006.7
20260508165030 62 329 6.0 16.0 0.00 0.00 0.00 38 1006.8
20260508164906 62 323 8.0 16.0 0.00 0.00 0.00 39 1006.8
20260508164810 62 295 8.0 16.0 0.00 0.00 0.00 38 1006.8
20260508164715 62 299 7.0 16.0 0.00 0.00 0.00 37 1006.8
20260508164619 62 304 6.0 16.0 0.00 0.00 0.00 36 1006.8
20260508164523 62 271 7.0 16.0 0.00 0.00 0.00 37 1006.9
20260508164430 62 284 8.0 16.0 0.00 0.00 0.00 40 1006.9
20260508164307 62 310 10.0 16.0 0.00 0.00 0.00 41 1006.8
20260508164210 62 306 11.0 15.0 0.00 0.00 0.00 39 1006.9
20260508164114 62 328 10.0 15.0 0.00 0.00 0.00 40 1006.9
20260508164020 62 284 8.0 14.0 0.00 0.00 0.00 39 1007.0
20260508163923 62 338 7.0 14.0 0.00 0.00 0.00 41 1006.9
20260508163831 62 343 5.0 14.0 0.00 0.00 0.00 40 1007.0
20260508163707 61 339 7.0 14.0 0.00 0.00 0.00 38 1007.0
20260508163632 61 314 8.0 14.0 0.00 0.00 0.00 38 1007.1
20260508163508 61 341 7.0 14.0 0.00 0.00 0.00 38 1006.9
20260508163433 61 303 8.0 14.0 0.00 0.00 0.00 38 1007.0
20260508163316 61 302 9.0 14.0 0.00 0.00 0.00 38 1007.0
20260508163220 61 306 10.0 14.0 0.00 0.00 0.00 38 1007.0
20260508163106 61 284 10.0 14.0 0.00 0.00 0.00 37 1007.0
20260508163009 61 291 10.0 14.0 0.00 0.00 0.00 38 1007.0
20260508162912 61 272 11.0 14.0 0.00 0.00 0.00 39 1007.0
20260508162836 61 274 11.0 14.0 0.00 0.00 0.00 40 1007.0
20260508162719 61 294 9.0 14.0 0.00 0.00 0.00 38 1007.1
20260508162622 61 276 8.0 12.0 0.00 0.00 0.00 40 1007.0
20260508162508 61 266 8.0 12.0 0.00 0.00 0.00 41 1007.0
20260508162432 61 305 9.0 12.0 0.00 0.00 0.00 41 1007.1
20260508162308 61 298 7.0 12.0 0.00 0.00 0.00 42 1007.1
20260508162231 61 317 5.0 11.0 0.00 0.00 0.00 43 1007.0
20260508162114 61 286 4.0 11.0 0.00 0.00 0.00 42 1007.0
20260508162017 60 360 5.0 11.0 0.00 0.00 0.00 46 1007.1
20260508161939 60 296 7.0 11.0 0.00 0.00 0.00 44 1007.2
20260508161808 60 293 8.0 11.0 0.00 0.00 0.00 43 1007.1
20260508161711 60 313 7.0 11.0 0.00 0.00 0.00 43 1007.2
20260508161614 60 303 6.0 11.0 0.00 0.00 0.00 44 1007.2
20260508161516 59 271 5.0 11.0 0.00 0.00 0.00 43 1007.1
20260508161419 59 225 6.0 11.0 0.00 0.00 0.00 43 1007.3
20260508161322 59 270 8.0 11.0 0.00 0.00 0.00 43 1007.3
20260508161209 59 296 6.0 11.0 0.00 0.00 0.00 45 1007.3
20260508161113 59 304 4.0 11.0 0.00 0.00 0.00 45 1007.3
20260508161036 59 301 4.0 11.0 0.00 0.00 0.00 45 1007.3
20260508160918 58 309 4.0 11.0 0.00 0.00 0.00 43 1007.3
20260508160841 58 296 5.0 11.0 0.00 0.00 0.00 44 1007.3
20260508160724 58 289 6.0 11.0 0.00 0.00 0.00 43 1007.4
20260508160626 58 306 6.0 11.0 0.00 0.00 0.00 45 1007.3
20260508160513 58 297 5.0 11.0 0.00 0.00 0.00 45 1007.3
20260508160415 58 265 6.0 11.0 0.00 0.00 0.00 45 1007.3
20260508160318 58 304 7.0 11.0 0.00 0.00 0.00 46 1007.3
20260508160222 58 302 7.0 11.0 0.00 0.00 0.00 44 1007.4
20260508160146 58 274 8.0 11.0 0.00 0.00 0.00 45 1007.3
20260508160029 58 259 8.0 11.0 0.00 0.00 0.00 44 1007.3
20260508155912 58 281 7.0 11.0 0.00 0.00 0.00 46 1007.4
20260508155820 57 288 8.0 11.0 0.00 0.00 0.00 45 1007.4
20260508155723 57 294 8.0 11.0 0.00 0.00 0.00 45 1007.4
20260508155608 57 295 7.0 11.0 0.00 0.00 0.00 44 1007.4
20260508155512 57 325 7.0 11.0 0.00 0.00 0.00 45 1007.4
20260508155435 57 295 8.0 11.0 0.00 0.00 0.00 48 1007.4
20260508155338 57 290 6.0 12.0 0.00 0.00 0.00 45 1007.4
20260508155220 57 306 4.0 12.0 0.00 0.00 0.00 46 1007.4
20260508155108 57 306 3.0 12.0 0.00 0.00 0.00 47 1007.4
20260508155032 57 269 4.0 13.0 0.00 0.00 0.00 46 1007.4
20260508154908 57 271 7.0 13.0 0.00 0.00 0.00 46 1007.4
20260508154832 57 296 8.0 13.0 0.00 0.00 0.00 46 1007.5
20260508154708 57 286 8.0 13.0 0.00 0.00 0.00 45 1007.5
20260508154612 57 293 9.0 13.0 0.00 0.00 0.00 45 1007.5
20260508154521 57 303 9.0 13.0 0.00 0.00 0.00 48 1007.5
20260508154423 57 297 9.0 13.0 0.00 0.00 0.00 46 1007.5
20260508154308 57 301 9.0 13.0 0.00 0.00 0.00 46 1007.5
20260508154232 57 315 9.0 13.0 0.00 0.00 0.00 46 1007.5
20260508154108 57 288 7.0 12.0 0.00 0.00 0.00 46 1007.5
20260508154013 57 265 6.0 12.0 0.00 0.00 0.00 46 1007.6
20260508153922 57 272 7.0 12.0 0.00 0.00 0.00 45 1007.6
20260508153806 57 275 8.0 12.0 0.00 0.00 0.00 47 1007.6
20260508153711 57 269 7.0 12.0 0.00 0.00 0.00 47 1007.6
20260508153616 57 306 7.0 12.0 0.00 0.00 0.00 46 1007.6
20260508153522 57 295 7.0 12.0 0.00 0.00 0.00 45 1007.6
20260508153424 57 317 8.0 12.0 0.00 0.00 0.00 46 1007.7
20260508153351 57 327 7.0 12.0 0.00 0.00 0.00 46 1007.6
20260508153207 56 329 7.0 12.0 0.00 0.00 0.00 44 1007.6
20260508153132 56 258 7.0 10.0 0.00 0.00 0.00 44 1007.6
20260508153009 56 261 6.0 12.0 0.00 0.00 0.00 45 1007.7
20260508152931 56 304 7.0 12.0 0.00 0.00 0.00 47 1007.6
20260508152815 56 316 7.0 12.0 0.00 0.00 0.00 46 1007.7
20260508152719 56 299 7.0 12.0 0.00 0.00 0.00 46 1007.7
20260508152647 56 286 7.0 12.0 0.00 0.00 0.00 47 1007.6
20260508152551 56 306 7.0 12.0 0.00 0.00 0.00 47 1007.7
20260508152407 56 288 8.0 12.0 0.00 0.00 0.00 47 1007.6
20260508152311 56 292 8.0 12.0 0.00 0.00 0.00 48 1007.6
20260508152235 56 292 8.0 12.0 0.00 0.00 0.00 49 1007.7
20260508152118 56 244 6.0 11.0 0.00 0.00 0.00 47 1007.7
20260508152022 56 284 5.0 11.0 0.00 0.00 0.00 47 1007.7
20260508151911 56 292 6.0 11.0 0.00 0.00 0.00 48 1007.7
20260508151835 56 285 8.0 11.0 0.00 0.00 0.00 46 1007.7
20260508151738 56 275 8.0 11.0 0.00 0.00 0.00 47 1007.7
20260508151642 56 309 7.0 11.0 0.00 0.00 0.00 47 1007.7
20260508151525 56 285 7.0 11.0 0.00 0.00 0.00 48 1007.8
20260508151429 56 302 7.0 10.0 0.00 0.00 0.00 49 1007.7
20260508151306 56 265 8.0 10.0 0.00 0.00 0.00 49 1007.8
20260508151214 56 282 7.0 10.0 0.00 0.00 0.00 49 1007.8
20260508151118 56 289 6.0 9.0 0.00 0.00 0.00 47 1007.9
20260508151023 55 284 4.0 7.0 0.00 0.00 0.00 47 1007.7
20260508150925 55 294 3.0 7.0 0.00 0.00 0.00 49 1007.7
20260508150809 55 11 2.0 8.0 0.00 0.00 0.00 51 1007.8
20260508150733 55 13 1.0 10.0 0.00 0.00 0.00 50 1007.7
20260508150617 55 13 2.0 10.0 0.00 0.00 0.00 50 1007.8
20260508150518 55 13 2.0 10.0 0.00 0.00 0.00 52 1007.9
20260508150406 55 269 1.0 10.0 0.00 0.00 0.00 52 1007.9
20260508150330 55 269 1.0 10.0 0.00 0.00 0.00 51 1007.9
20260508150207 55 317 2.0 10.0 0.00 0.00 0.00 50 1007.9
20260508150112 55 315 5.0 10.0 0.00 0.00 0.00 50 1007.9
20260508150016 54 316 7.0 10.0 0.00 0.00 0.00 48 1007.9
20260508145920 54 284 7.0 10.0 0.00 0.00 0.00 51 1008.0
20260508145807 54 297 5.0 7.0 0.00 0.00 0.00 50 1007.9
20260508145731 54 310 4.0 5.0 0.00 0.00 0.00 49 1007.9
20260508145608 54 307 3.0 5.0 0.00 0.00 0.00 50 1007.9
20260508145533 54 324 3.0 4.0 0.00 0.00 0.00 51 1007.9
20260508145435 54 313 2.0 4.0 0.00 0.00 0.00 50 1008.0
20260508145317 54 315 3.0 4.0 0.00 0.00 0.00 49 1008.0
20260508145221 54 249 3.0 5.0 0.00 0.00 0.00 49 1008.0
20260508145130 54 244 3.0 5.0 0.00 0.00 0.00 50 1008.0
20260508145007 54 269 3.0 6.0 0.00 0.00 0.00 53 1008.0
20260508144932 54 289 3.0 6.0 0.00 0.00 0.00 53 1008.1
20260508144808 54 287 1.0 8.0 0.00 0.00 0.00 53 1008.1
20260508144732 54 299 1.0 8.0 0.00 0.00 0.00 52 1008.1
20260508144635 54 300 1.0 8.0 0.00 0.00 0.00 51 1008.1
20260508144518 54 300 2.0 8.0 0.00 0.00 0.00 50 1008.1
20260508144425 54 298 3.0 8.0 0.00 0.00 0.00 50 1008.2
20260508144310 54 335 4.0 8.0 0.00 0.00 0.00 50 1008.1
20260508144215 54 331 4.0 8.0 0.00 0.00 0.00 51 1008.1
20260508144120 54 314 4.0 8.0 0.00 0.00 0.00 50 1008.2
20260508144024 54 345 2.0 6.0 0.00 0.00 0.00 52 1008.3
20260508143912 54 339 1.0 4.0 0.00 0.00 0.00 52 1008.3
20260508143815 54 336 1.0 4.0 0.00 0.00 0.00 50 1008.1
20260508143740 53 336 1.0 4.0 0.00 0.00 0.00 51 1008.2
20260508143623 54 336 1.0 4.0 0.00 0.00 0.00 50 1008.3
20260508143527 53 346 1.0 4.0 0.00 0.00 0.00 51 1008.2
20260508143410 53 346 2.0 4.0 0.00 0.00 0.00 52 1008.2
20260508143315 53 346 2.0 4.0 0.00 0.00 0.00 51 1008.2
20260508143223 53 346 2.0 4.0 0.00 0.00 0.00 51 1008.2
20260508143107 53 355 2.0 5.0 0.00 0.00 0.00 52 1008.3
20260508143029 53 342 2.0 5.0 0.00 0.00 0.00 52 1008.3
20260508142907 53 355 2.0 5.0 0.00 0.00 0.00 50 1008.3
20260508142812 53 300 3.0 5.0 0.00 0.00 0.00 51 1008.3
20260508142717 53 300 3.0 5.0 0.00 0.00 0.00 51 1008.3
20260508142625 53 299 3.0 5.0 0.00 0.00 0.00 51 1008.3
20260508142529 53 276 2.0 5.0 0.00 0.00 0.00 51 1008.3
20260508142411 53 360 3.0 5.0 0.00 0.00 0.00 52 1008.3
20260508142335 53 360 3.0 5.0 0.00 0.00 0.00 52 1008.3
20260508142219 53 355 3.0 5.0 0.00 0.00 0.00 52 1008.3
20260508142124 53 17 3.0 5.0 0.00 0.00 0.00 52 1008.3
20260508142028 53 22 2.0 6.0 0.00 0.00 0.00 53 1008.3
20260508141915 53 5 1.0 6.0 0.00 0.00 0.00 52 1008.3
20260508141820 53 346 2.0 6.0 0.00 0.00 0.00 52 1008.3
20260508141723 53 347 2.0 6.0 0.00 0.00 0.00 51 1008.4
20260508141627 53 305 1.0 6.0 0.00 0.00 0.00 52 1008.3
20260508141529 52 304 2.0 6.0 0.00 0.00 0.00 52 1008.3
20260508141406 52 304 3.0 6.0 0.00 0.00 0.00 51 1008.3
20260508141311 52 338 3.0 6.0 0.00 0.00 0.00 52 1008.3
20260508141219 52 333 3.0 6.0 0.00 0.00 0.00 51 1008.3
20260508141123 52 338 2.0 6.0 0.00 0.00 0.00 53 1008.8
20260508141028 52 308 2.0 5.0 0.00 0.00 0.00 52 1008.3
20260508140952 52 307 3.0 5.0 0.00 0.00 0.00 51 1008.3
20260508140809 52 308 3.0 5.0 0.00 0.00 0.00 52 1008.3
20260508140713 52 24 2.0 4.0 0.00 0.00 0.00 54 1008.3
20260508140622 52 25 2.0 4.0 0.00 0.00 0.00 53 1008.2
20260508140526 52 26 2.0 4.0 0.00 0.00 0.00 51 1008.3
20260508140429 52 355 2.0 4.0 0.00 0.00 0.00 52 1008.3
20260508140306 52 288 2.0 4.0 0.00 0.00 0.00 55 1008.3
20260508140231 52 260 2.0 4.0 0.00 0.00 0.00 53 1008.3
20260508140108 52 260 2.0 4.0 0.00 0.00 0.00 53 1008.3
20260508140031 51 325 2.0 4.0 0.00 0.00 0.00 53 1008.3
20260508135919 51 248 1.0 3.0 0.00 0.00 0.00 53 1008.4
20260508135823 51 248 1.0 3.0 0.00 0.00 0.00 55 1008.4
20260508135708 51 248 1.0 3.0 0.00 0.00 0.00 54 1008.4
20260508135632 51 248 1.0 3.0 0.00 0.00 0.00 54 1008.4
20260508135508 51 248 2.0 3.0 0.00 0.00 0.00 55 1008.4
20260508135412 51 248 1.0 3.0 0.00 0.00 0.00 56 1008.4
20260508135320 51 244 1.0 3.0 0.00 0.00 0.00 57 1008.4
20260508135225 51 256 1.0 4.0 0.00 0.00 0.00 57 1008.4
20260508135129 51 57 1.0 4.0 0.00 0.00 0.00 54 1008.4
20260508135033 51 63 1.0 4.0 0.00 0.00 0.00 55 1008.4
20260508134917 51 63 1.0 4.0 0.00 0.00 0.00 54 1008.5
20260508134841 51 63 2.0 4.0 0.00 0.00 0.00 54 1008.5
20260508134724 51 63 2.0 4.0 0.00 0.00 0.00 55 1008.5
20260508134632 51 63 2.0 4.0 0.00 0.00 0.00 57 1008.5
20260508134509 51 63 2.0 4.0 0.00 0.00 0.00 55 1008.5
20260508134434 51 64 3.0 4.0 0.00 0.00 0.00 55 1008.5
20260508134316 51 59 3.0 4.0 0.00 0.00 0.00 56 1008.5
20260508134221 51 49 2.0 4.0 0.00 0.00 0.00 54 1008.5
20260508134124 51 49 1.0 4.0 0.00 0.00 0.00 56 1008.5
20260508134012 51 50 2.0 4.0 0.00 0.00 0.00 54 1008.6
20260508133917 50 50 3.0 4.0 0.00 0.00 0.00 54 1008.6
20260508133820 51 26 3.0 4.0 0.00 0.00 0.00 55 1008.6
20260508133724 51 23 3.0 4.0 0.00 0.00 0.00 56 1008.6
20260508133610 51 22 3.0 4.0 0.00 0.00 0.00 59 1008.6
20260508133514 51 36 2.0 4.0 0.00 0.00 0.00 58 1008.6
20260508133422 51 37 2.0 4.0 0.00 0.00 0.00 55 1008.6
20260508133307 51 37 2.0 4.0 0.00 0.00 0.00 57 1008.6
20260508133231 51 37 3.0 4.0 0.00 0.00 0.00 56 1008.6
20260508133115 51 24 3.0 4.0 0.00 0.00 0.00 54 1008.6
20260508133039 50 18 2.0 4.0 0.00 0.00 0.00 54 1008.6
20260508132922 50 360 2.0 4.0 0.00 0.00 0.00 57 1008.7
20260508132806 50 355 1.0 4.0 0.00 0.00 0.00 54 1008.7
20260508132713 50 355 2.0 4.0 0.00 0.00 0.00 55 1008.7
20260508132616 50 355 2.0 4.0 0.00 0.00 0.00 55 1008.6
20260508132541 50 346 3.0 4.0 0.00 0.00 0.00 57 1008.6
20260508132424 50 355 3.0 4.0 0.00 0.00 0.00 57 1008.7
20260508132309 50 339 2.0 4.0 0.00 0.00 0.00 62 1008.6
20260508132212 49 11 1.0 3.0 0.00 0.00 0.00 62 1008.6
20260508132119 49 11 1.0 5.0 0.00 0.00 0.00 63 1008.7
20260508132023 49 11 1.0 5.0 0.00 0.00 0.00 62 1008.6
20260508131908 49 11 1.0 5.0 0.00 0.00 0.00 62 1008.6
20260508131831 48 11 1.0 5.0 0.00 0.00 0.00 63 1008.7
20260508131733 48 11 1.0 5.0 0.00 0.00 0.00 64 1008.7
20260508131608 48 11 1.0 5.0 0.00 0.00 0.00 63 1008.6
20260508131513 48 11 2.0 5.0 0.00 0.00 0.00 64 1008.7
20260508131422 48 11 2.0 5.0 0.00 0.00 0.00 63 1008.7
20260508131325 48 11 3.0 5.0 0.00 0.00 0.00 62 1008.7
20260508131229 47 309 4.0 5.0 0.00 0.00 0.00 62 1008.7
20260508131106 47 296 3.0 4.0 0.00 0.00 0.00 65 1008.6
20260508131010 47 338 2.0 4.0 0.00 0.00 0.00 66 1008.7
20260508130933 47 41 2.0 4.0 0.00 0.00 0.00 66 1008.7
20260508130821 46 75 1.0 2.0 0.00 0.00 0.00 66 1008.6
20260508130745 46 75 1.0 2.0 0.00 0.00 0.00 67 1008.7
20260508130628 46 75 0.0 2.0 0.00 0.00 0.00 68 1008.7
20260508130552 46 75 0.0 2.0 0.00 0.00 0.00 69 1008.7
20260508130407 46 75 0.0 2.0 0.00 0.00 0.00 70 1008.7
20260508130311 45 75 1.0 2.0 0.00 0.00 0.00 72 1008.7
20260508130236 45 75 1.0 2.0 0.00 0.00 0.00 70 1008.6
20260508130120 45 75 1.0 2.0 0.00 0.00 0.00 71 1008.6
20260508130028 45 75 1.0 2.0 0.00 0.00 0.00 72 1008.7
20260508125910 44 75 1.0 2.0 0.00 0.00 0.00 71 1008.7
20260508125835 44 75 1.0 2.0 0.00 0.00 0.00 71 1008.7
20260508125718 44 75 1.0 2.0 0.00 0.00 0.00 72 1008.6
20260508125621 44 75 1.0 2.0 0.00 0.00 0.00 72 1008.7
20260508125546 44 75 1.0 2.0 0.00 0.00 0.00 72 1008.7
20260508125410 43 75 1.0 3.0 0.00 0.00 0.00 71 1008.6
20260508125337 43 75 1.0 3.0 0.00 0.00 0.00 72 1008.7
20260508125220 43 75 1.0 3.0 0.00 0.00 0.00 72 1008.7
20260508125125 43 75 2.0 3.0 0.00 0.00 0.00 73 1008.7
20260508125028 43 75 2.0 3.0 0.00 0.00 0.00 74 1008.8
20260508124911 43 75 2.0 3.0 0.00 0.00 0.00 74 1008.7
20260508124815 42 75 2.0 3.0 0.00 0.00 0.00 75 1008.7
20260508124721 42 75 2.0 3.0 0.00 0.00 0.00 76 1008.7
20260508124608 42 75 2.0 2.0 0.00 0.00 0.00 76 1008.7
20260508124514 42 75 2.0 2.0 0.00 0.00 0.00 77 1008.7
20260508124417 42 75 2.0 2.0 0.00 0.00 0.00 77 1008.8
20260508124322 42 75 1.0 2.0 0.00 0.00 0.00 77 1008.7
20260508124227 41 75 1.0 2.0 0.00 0.00 0.00 78 1008.8
20260508124111 41 75 2.0 2.0 0.00 0.00 0.00 78 1008.7
20260508124017 41 75 2.0 2.0 0.00 0.00 0.00 78 1008.7
20260508123922 41 75 1.0 2.0 0.00 0.00 0.00 78 1008.7
20260508123826 41 75 1.0 2.0 0.00 0.00 0.00 78 1008.7
20260508123711 41 75 1.0 2.0 0.00 0.00 0.00 78 1008.7
20260508123615 40 75 1.0 2.0 0.00 0.00 0.00 78 1008.7
20260508123518 40 75 0.0 1.0 0.00 0.00 0.00 78 1008.8
20260508123406 40 75 0.0 0.0 0.00 0.00 0.00 78 1008.7
20260508123329 40 75 0.0 0.0 0.00 0.00 0.00 78 1008.7
20260508123206 40 75 0.0 0.0 0.00 0.00 0.00 78 1008.7
20260508123109 39 75 0.0 0.0 0.00 0.00 0.00 78 1008.7
20260508123011 39 75 0.0 0.0 0.00 0.00 0.00 79 1008.7
20260508122935 39 75 0.0 0.0 0.00 0.00 0.00 79 1008.7
20260508122818 39 75 0.0 0.0 0.00 0.00 0.00 79 1008.7
20260508122706 39 75 0.0 0.0 0.00 0.00 0.00 79 1008.8
20260508122610 39 75 0.0 0.0 0.00 0.00 0.00 79 1008.8
20260508122514 38 75 0.0 0.0 0.00 0.00 0.00 79 1008.7
20260508122416 38 75 0.0 0.0 0.00 0.00 0.00 80 1008.7
20260508122319 38 75 0.0 0.0 0.00 0.00 0.00 81 1008.7
20260508122206 38 75 0.0 0.0 0.00 0.00 0.00 81 1008.6
20260508122131 38 75 0.0 0.0 0.00 0.00 0.00 81 1008.7
20260508122008 37 75 0.0 0.0 0.00 0.00 0.00 81 1008.7
20260508121913 37 75 0.0 0.0 0.00 0.00 0.00 81 1008.7
20260508121816 37 75 0.0 1.0 0.00 0.00 0.00 81 1008.7
20260508121720 37 75 0.0 2.0 0.00 0.00 0.00 81 1008.7
20260508121622 37 75 0.0 2.0 0.00 0.00 0.00 81 1008.6
20260508121551 36 75 0.0 2.0 0.00 0.00 0.00 80 1008.6
20260508121407 36 75 0.0 2.0 0.00 0.00 0.00 80 1008.6
20260508121331 36 75 0.0 2.0 0.00 0.00 0.00 80 1008.6
20260508121207 36 75 0.0 2.0 0.00 0.00 0.00 80 1008.7
20260508121111 36 75 1.0 2.0 0.00 0.00 0.00 80 1008.7
20260508121034 36 75 1.0 2.0 0.00 0.00 0.00 81 1008.7
20260508120916 35 75 1.0 2.0 0.00 0.00 0.00 81 1008.6
20260508120822 35 75 1.0 2.0 0.00 0.00 0.00 81 1008.7
20260508120726 35 75 1.0 2.0 0.00 0.00 0.00 80 1008.7
20260508120628 35 75 1.0 2.0 0.00 0.00 0.00 80 1008.7
20260508120510 35 75 1.0 2.0 0.00 0.00 0.00 81 1008.7
20260508120413 35 75 1.0 2.0 0.00 0.00 0.00 81 1008.7
20260508120316 35 75 1.0 2.0 0.00 0.00 0.00 81 1008.7
20260508120219 35 75 0.0 1.0 0.00 0.00 0.00 81 1008.6
20260508120106 35 75 0.0 1.0 0.00 0.00 0.00 82 1008.6
20260508120009 35 75 0.0 0.0 0.00 0.00 0.00 82 1008.6
20260508115933 35 75 0.0 0.0 0.00 0.00 0.00 82 1008.7
20260508115815 35 75 0.0 0.0 0.00 0.00 0.00 82 1008.6
20260508115717 35 75 0.0 0.0 0.00 0.00 0.00 82 1008.6
20260508115620 35 75 0.0 0.0 0.00 0.00 0.00 82 1008.6
20260508115507 34 75 0.0 0.0 0.00 0.00 0.00 82 1008.6
20260508115411 34 75 0.0 0.0 0.00 0.00 0.00 82 1008.6
20260508115333 34 75 0.0 0.0 0.00 0.00 0.00 82 1008.6
20260508115208 34 75 0.0 0.0 0.00 0.00 0.00 82 1008.6
20260508115111 34 75 0.0 0.0 0.00 0.00 0.00 82 1008.6
20260508115014 34 75 0.0 0.0 0.00 0.00 0.00 82 1008.6
20260508114921 34 75 0.0 0.0 0.00 0.00 0.00 82 1008.5
20260508114824 34 75 0.0 0.0 0.00 0.00 0.00 83 1008.6
20260508114728 34 75 0.0 0.0 0.00 0.00 0.00 84 1008.6
20260508114609 34 75 0.0 0.0 0.00 0.00 0.00 84 1008.6
20260508114512 34 75 0.0 0.0 0.00 0.00 0.00 84 1008.6
20260508114415 34 75 0.0 0.0 0.00 0.00 0.00 84 1008.5
20260508114317 33 75 0.0 0.0 0.00 0.00 0.00 83 1008.6
20260508114241 33 75 0.0 0.0 0.00 0.00 0.00 84 1008.5
20260508114127 33 75 0.0 0.0 0.00 0.00 0.00 84 1008.6
20260508114051 33 75 0.0 0.0 0.00 0.00 0.00 84 1008.6
20260508113905 33 75 0.0 0.0 0.00 0.00 0.00 84 1008.5
20260508113829 33 75 0.0 0.0 0.00 0.00 0.00 84 1008.5
20260508113731 33 75 0.0 0.0 0.00 0.00 0.00 84 1008.5
20260508113608 33 75 0.0 0.0 0.00 0.00 0.00 84 1008.5
20260508113511 33 75 0.0 0.0 0.00 0.00 0.00 84 1008.5
20260508113418 33 75 0.0 0.0 0.00 0.00 0.00 84 1008.6
20260508113321 33 75 0.0 0.0 0.00 0.00 0.00 84 1008.5
20260508113206 33 75 0.0 0.0 0.00 0.00 0.00 84 1008.5
20260508113110 33 75 0.0 0.0 0.00 0.00 0.00 84 1008.6
20260508113014 33 75 0.0 0.0 0.00 0.00 0.00 84 1008.5
20260508112918 33 75 0.0 0.0 0.00 0.00 0.00 84 1008.5
20260508112825 33 75 0.0 0.0 0.00 0.00 0.00 84 1008.6
20260508112730 33 75 0.0 0.0 0.00 0.00 0.00 84 1008.5
20260508112607 33 75 0.0 0.0 0.00 0.00 0.00 83 1008.5
20260508112511 33 75 0.0 0.0 0.00 0.00 0.00 83 1008.5
20260508112415 33 75 0.0 0.0 0.00 0.00 0.00 83 1008.5
20260508112319 33 75 0.0 0.0 0.00 0.00 0.00 83 1008.5
20260508112207 33 75 0.0 0.0 0.00 0.00 0.00 83 1008.5
20260508112111 33 75 0.0 0.0 0.00 0.00 0.00 83 1008.5
20260508112016 33 75 0.0 0.0 0.00 0.00 0.00 83 1008.5
20260508111919 33 75 0.0 0.0 0.00 0.00 0.00 83 1008.5
20260508111823 33 75 0.0 0.0 0.00 0.00 0.00 83 1008.5
20260508111707 33 75 0.0 0.0 0.00 0.00 0.00 83 1008.5
20260508111614 33 75 0.0 0.0 0.00 0.00 0.00 83 1008.5
20260508111538 33 75 0.0 0.0 0.00 0.00 0.00 83 1008.6
20260508111420 33 75 0.0 0.0 0.00 0.00 0.00 83 1008.4
20260508111324 33 75 0.0 0.0 0.00 0.00 0.00 83 1008.5
20260508111210 33 75 0.0 0.0 0.00 0.00 0.00 83 1008.5
20260508111113 33 75 0.0 0.0 0.00 0.00 0.00 83 1008.5
20260508111037 33 75 0.0 0.0 0.00 0.00 0.00 82 1008.5
20260508110924 33 75 0.0 0.0 0.00 0.00 0.00 82 1008.5
20260508110809 33 75 0.0 0.0 0.00 0.00 0.00 82 1008.5
20260508110714 33 75 0.0 0.0 0.00 0.00 0.00 82 1008.5
20260508110639 33 75 0.0 0.0 0.00 0.00 0.00 82 1008.5
20260508110523 33 75 0.0 0.0 0.00 0.00 0.00 81 1008.5
20260508110426 33 75 0.0 0.0 0.00 0.00 0.00 81 1008.5
20260508110331 33 75 0.0 0.0 0.00 0.00 0.00 81 1008.4
20260508110218 33 75 0.0 0.0 0.00 0.00 0.00 81 1008.5
20260508110122 33 75 0.0 0.0 0.00 0.00 0.00 81 1008.5
20260508110047 33 75 0.0 0.0 0.00 0.00 0.00 81 1008.5
20260508105950 33 75 0.0 0.0 0.00 0.00 0.00 81 1008.5
20260508105806 33 75 0.0 0.0 0.00 0.00 0.00 81 1008.4
20260508105710 34 75 0.0 0.0 0.00 0.00 0.00 81 1008.5
20260508105634 34 75 0.0 0.0 0.00 0.00 0.00 81 1008.5
20260508105523 34 75 0.0 0.0 0.00 0.00 0.00 81 1008.5
20260508105407 34 75 0.0 0.0 0.00 0.00 0.00 81 1008.5
20260508105313 34 75 0.0 0.0 0.00 0.00 0.00 81 1008.5
20260508105217 34 75 0.0 0.0 0.00 0.00 0.00 80 1008.5
20260508105122 34 75 0.0 0.0 0.00 0.00 0.00 80 1008.5
20260508105026 34 75 0.0 0.0 0.00 0.00 0.00 80 1008.4
20260508104913 34 75 0.0 0.0 0.00 0.00 0.00 79 1008.5
20260508104816 34 75 0.0 0.0 0.00 0.00 0.00 79 1008.5
20260508104721 34 75 0.0 0.0 0.00 0.00 0.00 79 1008.5
20260508104625 34 75 0.0 0.0 0.00 0.00 0.00 79 1008.5
20260508104510 34 75 0.0 0.0 0.00 0.00 0.00 78 1008.5
20260508104413 34 75 0.0 0.0 0.00 0.00 0.00 79 1008.5
20260508104322 34 75 0.0 0.0 0.00 0.00 0.00 78 1008.5
20260508104225 34 75 0.0 0.0 0.00 0.00 0.00 78 1008.5
20260508104110 34 75 0.0 0.0 0.00 0.00 0.00 78 1008.5
20260508104013 35 75 0.0 0.0 0.00 0.00 0.00 78 1008.5
20260508103917 35 75 0.0 0.0 0.00 0.00 0.00 78 1008.5
20260508103821 35 75 0.0 0.0 0.00 0.00 0.00 78 1008.6
20260508103730 35 75 0.0 0.0 0.00 0.00 0.00 78 1008.4
20260508103612 35 75 0.0 0.0 0.00 0.00 0.00 78 1008.5
20260508103517 35 75 0.0 0.0 0.00 0.00 0.00 78 1008.4
20260508103440 35 75 0.0 0.0 0.00 0.00 0.00 78 1008.5
20260508103324 35 75 0.0 0.0 0.00 0.00 0.00 78 1008.5
20260508103229 35 75 0.0 0.0 0.00 0.00 0.00 79 1008.5
20260508103112 35 75 0.0 0.0 0.00 0.00 0.00 79 1008.5
20260508103040 35 75 0.0 0.0 0.00 0.00 0.00 79 1008.5
20260508102923 35 75 0.0 0.0 0.00 0.00 0.00 79 1008.5
20260508102848 36 75 0.0 0.0 0.00 0.00 0.00 79 1008.5
20260508102750 36 75 0.0 0.0 0.00 0.00 0.00 79 1008.5
20260508102606 36 75 0.0 1.0 0.00 0.00 0.00 79 1008.5
20260508102531 36 75 0.0 1.0 0.00 0.00 0.00 78 1008.5
20260508102415 36 75 0.0 2.0 0.00 0.00 0.00 78 1008.5
20260508102318 36 75 0.0 2.0 0.00 0.00 0.00 77 1008.4
20260508102227 36 75 0.0 3.0 0.00 0.00 0.00 77 1008.5
20260508102111 36 75 0.0 3.0 0.00 0.00 0.00 77 1008.4
20260508102016 36 75 0.0 4.0 0.00 0.00 0.00 77 1008.5
20260508101920 36 75 0.0 4.0 0.00 0.00 0.00 77 1008.5
20260508101824 36 75 0.0 4.0 0.00 0.00 0.00 77 1008.5
20260508101729 36 75 1.0 4.0 0.00 0.00 0.00 77 1008.5
20260508101617 36 75 2.0 5.0 0.00 0.00 0.00 77 1008.4
20260508101542 36 75 2.0 5.0 0.00 0.00 0.00 77 1008.5
20260508101426 36 75 3.0 5.0 0.00 0.00 0.00 78 1008.5
20260508101350 36 75 3.0 5.0 0.00 0.00 0.00 78 1008.6
20260508101205 36 75 3.0 5.0 0.00 0.00 0.00 78 1008.5
20260508101110 36 75 3.0 5.0 0.00 0.00 0.00 78 1008.6
20260508101035 36 75 4.0 5.0 0.00 0.00 0.00 78 1008.4
20260508100918 36 76 4.0 5.0 0.00 0.00 0.00 78 1008.5
20260508100826 36 75 4.0 5.0 0.00 0.00 0.00 79 1008.4
20260508100752 36 75 4.0 5.0 0.00 0.00 0.00 79 1008.5
20260508100608 36 76 4.0 5.0 0.00 0.00 0.00 79 1008.4
20260508100513 36 78 5.0 5.0 0.00 0.00 0.00 79 1008.5
20260508100416 36 78 4.0 5.0 0.00 0.00 0.00 79 1008.5
20260508100320 36 82 4.0 6.0 0.00 0.00 0.00 78 1008.5
20260508100209 36 117 3.0 6.0 0.00 0.00 0.00 78 1008.5
20260508100112 36 234 2.0 4.0 0.00 0.00 0.00 78 1008.5
20260508100018 36 235 1.0 2.0 0.00 0.00 0.00 78 1008.5
20260508095921 36 235 1.0 2.0 0.00 0.00 0.00 78 1008.5
20260508095824 36 235 0.0 1.0 0.00 0.00 0.00 78 1008.5
20260508095709 36 235 0.0 0.0 0.00 0.00 0.00 78 1008.5
20260508095617 36 235 0.0 1.0 0.00 0.00 0.00 78 1008.5
20260508095520 36 235 0.0 2.0 0.00 0.00 0.00 78 1008.5
20260508095425 36 235 0.0 2.0 0.00 0.00 0.00 78 1008.4
20260508095329 36 235 0.0 2.0 0.00 0.00 0.00 78 1008.5
20260508095212 36 235 0.0 2.0 0.00 0.00 0.00 78 1008.4
20260508095117 36 235 0.0 2.0 0.00 0.00 0.00 78 1008.4
20260508095005 36 235 0.0 2.0 0.00 0.00 0.00 78 1008.5
20260508094910 36 235 0.0 2.0 0.00 0.00 0.00 78 1008.5
20260508094814 36 235 1.0 3.0 0.00 0.00 0.00 78 1008.4
20260508094719 36 235 1.0 3.0 0.00 0.00 0.00 78 1008.5
20260508094623 36 235 1.0 3.0 0.00 0.00 0.00 78 1008.5
20260508094526 36 235 1.0 3.0 0.00 0.00 0.00 78 1008.5
20260508094413 36 235 1.0 3.0 0.00 0.00 0.00 78 1008.5
20260508094318 36 235 1.0 3.0 0.00 0.00 0.00 78 1008.5
20260508094223 36 235 1.0 3.0 0.00 0.00 0.00 79 1008.5
20260508094107 36 235 2.0 3.0 0.00 0.00 0.00 79 1008.4
20260508094031 36 235 2.0 3.0 0.00 0.00 0.00 79 1008.5
20260508093908 36 235 1.0 4.0 0.00 0.00 0.00 79 1008.5
20260508093812 36 235 1.0 4.0 0.00 0.00 0.00 79 1008.4
20260508093739 36 235 1.0 4.0 0.00 0.00 0.00 79 1008.4
20260508093643 36 235 1.0 4.0 0.00 0.00 0.00 79 1008.4
20260508093506 36 235 1.0 4.0 0.00 0.00 0.00 80 1008.4
20260508093431 36 235 1.0 4.0 0.00 0.00 0.00 80 1008.4
20260508093308 36 234 1.0 4.0 0.00 0.00 0.00 80 1008.4
20260508093212 36 234 2.0 4.0 0.00 0.00 0.00 80 1008.4
20260508093117 36 234 2.0 4.0 0.00 0.00 0.00 80 1008.4
20260508093025 36 237 1.0 3.0 0.00 0.00 0.00 80 1008.4
20260508092929 36 237 1.0 3.0 0.00 0.00 0.00 79 1008.4
20260508092813 36 237 1.0 3.0 0.00 0.00 0.00 79 1008.4
20260508092716 36 237 1.0 3.0 0.00 0.00 0.00 79 1008.4
20260508092621 36 237 1.0 3.0 0.00 0.00 0.00 79 1008.4
20260508092506 36 237 2.0 3.0 0.00 0.00 0.00 79 1008.4
20260508092415 36 237 2.0 3.0 0.00 0.00 0.00 79 1008.4
20260508092339 36 237 2.0 3.0 0.00 0.00 0.00 79 1008.3
20260508092222 36 237 2.0 3.0 0.00 0.00 0.00 80 1008.3
20260508092146 36 237 1.0 3.0 0.00 0.00 0.00 80 1008.4
20260508092009 36 237 1.0 3.0 0.00 0.00 0.00 81 1008.4
20260508091934 36 237 1.0 3.0 0.00 0.00 0.00 81 1008.4
20260508091818 36 237 1.0 3.0 0.00 0.00 0.00 81 1008.5
20260508091742 36 237 1.0 3.0 0.00 0.00 0.00 82 1008.4
20260508091609 36 237 1.0 3.0 0.00 0.00 0.00 82 1008.4
20260508091514 36 237 1.0 3.0 0.00 0.00 0.00 82 1008.5
20260508091419 36 237 1.0 3.0 0.00 0.00 0.00 81 1008.4
20260508091345 36 237 1.0 3.0 0.00 0.00 0.00 81 1008.4
20260508091229 36 237 1.0 3.0 0.00 0.00 0.00 81 1008.4
20260508091106 37 237 1.0 3.0 0.00 0.00 0.00 81 1008.4
20260508091013 37 237 1.0 3.0 0.00 0.00 0.00 81 1008.5
20260508090918 37 237 1.0 3.0 0.00 0.00 0.00 82 1008.5
20260508090819 37 237 1.0 3.0 0.00 0.00 0.00 81 1008.5
20260508090723 37 237 1.0 3.0 0.00 0.00 0.00 82 1008.5
20260508090608 37 237 1.0 3.0 0.00 0.00 0.00 82 1008.5
20260508090512 37 237 1.0 3.0 0.00 0.00 0.00 81 1008.4
20260508090421 37 237 2.0 3.0 0.00 0.00 0.00 81 1008.4
20260508090306 37 237 2.0 3.0 0.00 0.00 0.00 81 1008.4
20260508090230 37 237 2.0 3.0 0.00 0.00 0.00 81 1008.4
20260508090107 37 237 2.0 3.0 0.00 0.00 0.00 81 1008.5
20260508090012 37 237 2.0 3.0 0.00 0.00 0.00 81 1008.4
20260508085916 37 237 1.0 3.0 0.00 0.00 0.00 80 1008.4
20260508085840 37 237 1.0 2.0 0.00 0.00 0.00 80 1008.4
20260508085706 37 237 0.0 2.0 0.00 0.00 0.00 80 1008.5
20260508085630 37 237 0.0 2.0 0.00 0.00 0.00 80 1008.4
20260508085507 37 237 0.0 2.0 0.00 0.00 0.00 80 1008.4
20260508085430 37 237 1.0 2.0 0.00 0.00 0.00 80 1008.4
20260508085307 37 237 1.0 3.0 0.00 0.00 0.00 80 1008.5
20260508085212 37 237 1.0 3.0 0.00 0.00 0.00 80 1008.5
20260508085139 37 237 1.0 3.0 0.00 0.00 0.00 79 1008.5
20260508085022 37 237 1.0 3.0 0.00 0.00 0.00 79 1008.4
20260508084925 37 237 1.0 3.0 0.00 0.00 0.00 79 1008.4
20260508084808 37 237 1.0 3.0 0.00 0.00 0.00 79 1008.5
20260508084712 37 237 1.0 3.0 0.00 0.00 0.00 78 1008.5
20260508084615 37 237 1.0 3.0 0.00 0.00 0.00 78 1008.4
20260508084522 37 237 1.0 3.0 0.00 0.00 0.00 78 1008.5
20260508084426 37 237 1.0 3.0 0.00 0.00 0.00 78 1008.5
20260508084310 37 237 1.0 3.0 0.00 0.00 0.00 78 1008.5
20260508084213 37 237 1.0 3.0 0.00 0.00 0.00 78 1008.5
20260508084117 37 237 1.0 3.0 0.00 0.00 0.00 78 1008.5
20260508084020 37 237 1.0 3.0 0.00 0.00 0.00 78 1008.5
20260508083927 37 237 1.0 3.0 0.00 0.00 0.00 78 1008.5
20260508083831 37 237 1.0 4.0 0.00 0.00 0.00 78 1008.4
20260508083707 37 237 1.0 4.0 0.00 0.00 0.00 78 1008.5
20260508083629 37 237 1.0 4.0 0.00 0.00 0.00 79 1008.5
20260508083512 37 237 2.0 4.0 0.00 0.00 0.00 79 1008.5
20260508083416 37 237 2.0 4.0 0.00 0.00 0.00 79 1008.5
20260508083319 37 237 2.0 4.0 0.00 0.00 0.00 79 1008.5
20260508083228 37 237 2.0 4.0 0.00 0.00 0.00 79 1008.5
20260508083131 37 237 2.0 4.0 0.00 0.00 0.00 80 1008.5
20260508083008 37 237 2.0 4.0 0.00 0.00 0.00 80 1008.6
20260508082931 37 237 2.0 4.0 0.00 0.00 0.00 80 1008.5
20260508082834 37 237 2.0 4.0 0.00 0.00 0.00 80 1008.5
20260508082716 37 237 2.0 4.0 0.00 0.00 0.00 80 1008.6
20260508082620 37 237 2.0 4.0 0.00 0.00 0.00 80 1008.6
20260508082508 37 238 2.0 4.0 0.00 0.00 0.00 80 1008.6
20260508082432 37 238 2.0 4.0 0.00 0.00 0.00 80 1008.5
20260508082309 37 237 2.0 4.0 0.00 0.00 0.00 80 1008.5
20260508082213 37 238 2.0 4.0 0.00 0.00 0.00 81 1008.6
20260508082116 37 237 2.0 4.0 0.00 0.00 0.00 81 1008.6
20260508082040 37 237 2.0 4.0 0.00 0.00 0.00 81 1008.5
20260508081943 37 237 2.0 4.0 0.00 0.00 0.00 81 1008.5
20260508081811 37 238 2.0 4.0 0.00 0.00 0.00 81 1008.6
20260508081715 37 238 2.0 4.0 0.00 0.00 0.00 81 1008.6
20260508081619 37 238 2.0 4.0 0.00 0.00 0.00 81 1008.5
20260508081543 37 238 2.0 4.0 0.00 0.00 0.00 81 1008.5
20260508081426 37 238 2.0 4.0 0.00 0.00 0.00 81 1008.6
20260508081309 37 238 2.0 4.0 0.00 0.00 0.00 81 1008.5
20260508081211 37 238 2.0 4.0 0.00 0.00 0.00 81 1008.5
20260508081119 37 237 2.0 3.0 0.00 0.00 0.00 81 1008.6
20260508081044 37 238 2.0 3.0 0.00 0.00 0.00 82 1008.6
20260508080927 37 238 2.0 3.0 0.00 0.00 0.00 82 1008.6
20260508080831 37 238 2.0 3.0 0.00 0.00 0.00 82 1008.6
20260508080714 37 238 2.0 4.0 0.00 0.00 0.00 82 1008.5
20260508080618 37 238 2.0 4.0 0.00 0.00 0.00 82 1008.6
20260508080543 37 238 2.0 4.0 0.00 0.00 0.00 81 1008.6
20260508080410 37 238 2.0 4.0 0.00 0.00 0.00 82 1008.6
20260508080334 37 238 2.0 4.0 0.00 0.00 0.00 82 1008.5
20260508080209 37 238 2.0 4.0 0.00 0.00 0.00 82 1008.6
20260508080112 37 238 2.0 4.0 0.00 0.00 0.00 82 1008.6
20260508080037 37 238 2.0 4.0 0.00 0.00 0.00 82 1008.6
20260508075919 37 238 2.0 4.0 0.00 0.00 0.00 82 1008.6
20260508075822 37 238 2.0 4.0 0.00 0.00 0.00 82 1008.6
20260508075731 37 238 2.0 4.0 0.00 0.00 0.00 82 1008.6
20260508075607 37 238 2.0 4.0 0.00 0.00 0.00 82 1008.6
20260508075530 37 238 2.0 4.0 0.00 0.00 0.00 82 1008.6
20260508075408 37 238 2.0 4.0 0.00 0.00 0.00 82 1008.7
20260508075312 37 238 2.0 3.0 0.00 0.00 0.00 82 1008.7
20260508075235 37 238 2.0 3.0 0.00 0.00 0.00 82 1008.6
20260508075118 37 238 1.0 3.0 0.00 0.00 0.00 82 1008.6
20260508075006 37 238 1.0 3.0 0.00 0.00 0.00 82 1008.7
20260508074931 37 238 1.0 3.0 0.00 0.00 0.00 82 1008.6
20260508074807 37 238 1.0 3.0 0.00 0.00 0.00 82 1008.6
20260508074710 37 238 2.0 3.0 0.00 0.00 0.00 82 1008.7
20260508074614 37 238 2.0 3.0 0.00 0.00 0.00 82 1008.6
20260508074518 37 238 2.0 3.0 0.00 0.00 0.00 82 1008.7
20260508074406 37 238 2.0 3.0 0.00 0.00 0.00 82 1008.7
20260508074330 37 238 1.0 3.0 0.00 0.00 0.00 82 1008.6
20260508074207 37 238 1.0 3.0 0.00 0.00 0.00 83 1008.7
20260508074129 37 238 1.0 3.0 0.00 0.00 0.00 83 1008.7
20260508074012 37 238 2.0 3.0 0.00 0.00 0.00 82 1008.7
20260508073936 37 238 2.0 3.0 0.00 0.00 0.00 82 1008.7
20260508073819 37 238 2.0 3.0 0.00 0.00 0.00 82 1008.7
20260508073707 37 238 2.0 3.0 0.00 0.00 0.00 82 1008.7
20260508073610 37 238 1.0 3.0 0.00 0.00 0.00 82 1008.8
20260508073514 37 238 2.0 3.0 0.00 0.00 0.00 82 1008.8
20260508073418 37 238 2.0 3.0 0.00 0.00 0.00 82 1008.7
20260508073320 37 238 2.0 3.0 0.00 0.00 0.00 82 1008.8
20260508073206 37 238 1.0 3.0 0.00 0.00 0.00 82 1008.7
20260508073131 37 238 1.0 3.0 0.00 0.00 0.00 82 1008.8
20260508073006 37 238 2.0 3.0 0.00 0.00 0.00 82 1008.8
20260508072909 37 238 2.0 3.0 0.00 0.00 0.00 82 1008.7
20260508072832 37 238 2.0 3.0 0.00 0.00 0.00 82 1008.8
20260508072735 37 238 2.0 3.0 0.00 0.00 0.00 82 1008.7
20260508072617 37 238 2.0 3.0 0.00 0.00 0.00 82 1008.7
20260508072520 37 239 2.0 3.0 0.00 0.00 0.00 82 1008.7
20260508072406 37 239 2.0 3.0 0.00 0.00 0.00 82 1008.7
20260508072308 37 239 1.0 3.0 0.00 0.00 0.00 82 1008.7
20260508072212 37 239 1.0 3.0 0.00 0.00 0.00 82 1008.8
20260508072134 37 239 1.0 3.0 0.00 0.00 0.00 82 1008.7
20260508072017 37 239 2.0 3.0 0.00 0.00 0.00 82 1008.7
20260508071919 37 239 2.0 3.0 0.00 0.00 0.00 82 1008.7
20260508071807 37 239 2.0 3.0 0.00 0.00 0.00 83 1008.8
20260508071709 37 239 2.0 3.0 0.00 0.00 0.00 83 1008.8
20260508071612 37 239 2.0 3.0 0.00 0.00 0.00 83 1008.8
20260508071516 37 239 2.0 3.0 0.00 0.00 0.00 82 1008.7
20260508071418 37 239 2.0 3.0 0.00 0.00 0.00 82 1008.8
20260508071342 37 240 2.0 3.0 0.00 0.00 0.00 82 1008.8
20260508071207 37 240 2.0 3.0 0.00 0.00 0.00 83 1008.7
20260508071130 37 240 2.0 3.0 0.00 0.00 0.00 83 1008.7
20260508071054 37 240 2.0 3.0 0.00 0.00 0.00 83 1008.8
20260508070910 37 239 2.0 3.0 0.00 0.00 0.00 83 1008.8
20260508070812 37 239 2.0 3.0 0.00 0.00 0.00 83 1008.8
20260508070716 37 239 1.0 3.0 0.00 0.00 0.00 83 1008.8
20260508070619 37 239 1.0 3.0 0.00 0.00 0.00 83 1008.8
20260508070506 37 239 2.0 3.0 0.00 0.00 0.00 83 1008.7
20260508070430 37 239 2.0 4.0 0.00 0.00 0.00 83 1008.8
20260508070306 37 239 1.0 4.0 0.00 0.00 0.00 83 1008.8
20260508070208 37 239 1.0 4.0 0.00 0.00 0.00 83 1008.8
20260508070111 37 239 1.0 4.0 0.00 0.00 0.00 83 1008.8
20260508070014 37 239 1.0 4.0 0.00 0.00 0.00 83 1008.8
20260508065919 37 239 1.0 4.0 0.00 0.00 0.00 83 1008.7
20260508065825 37 239 1.0 4.0 0.00 0.00 0.00 83 1008.8
20260508065728 36 239 2.0 4.0 0.00 0.00 0.00 83 1008.8
20260508065610 36 239 2.0 4.0 0.00 0.00 0.00 83 1008.8
20260508065535 36 239 1.0 3.0 0.00 0.00 0.00 82 1008.9
20260508065416 36 239 1.0 3.0 0.00 0.00 0.00 82 1008.8
20260508065320 36 239 1.0 3.0 0.00 0.00 0.00 82 1008.8
20260508065243 36 239 1.0 3.0 0.00 0.00 0.00 82 1008.8
20260508065109 36 240 1.0 3.0 0.00 0.00 0.00 82 1008.9
20260508065033 36 239 1.0 3.0 0.00 0.00 0.00 82 1008.9
20260508064909 36 239 1.0 3.0 0.00 0.00 0.00 81 1008.8
20260508064832 36 239 1.0 3.0 0.00 0.00 0.00 81 1008.9
20260508064716 36 239 1.0 3.0 0.00 0.00 0.00 81 1008.9
20260508064638 36 239 1.0 3.0 0.00 0.00 0.00 80 1008.8
20260508064520 36 239 1.0 3.0 0.00 0.00 0.00 80 1008.9
20260508064407 36 239 1.0 3.0 0.00 0.00 0.00 80 1008.9
20260508064330 36 239 2.0 3.0 0.00 0.00 0.00 79 1008.9
20260508064231 36 239 1.0 3.0 0.00 0.00 0.00 79 1008.9
20260508064108 36 239 1.0 3.0 0.00 0.00 0.00 79 1008.9
20260508064010 36 239 1.0 3.0 0.00 0.00 0.00 79 1008.9
20260508063913 37 239 1.0 3.0 0.00 0.00 0.00 79 1008.9
20260508063817 36 239 1.0 3.0 0.00 0.00 0.00 79 1009.0
20260508063725 37 239 1.0 3.0 0.00 0.00 0.00 79 1008.9
20260508063630 37 239 1.0 3.0 0.00 0.00 0.00 79 1009.0
20260508063513 37 239 1.0 2.0 0.00 0.00 0.00 79 1009.0
20260508063436 37 240 1.0 2.0 0.00 0.00 0.00 78 1009.0
20260508063318 37 239 1.0 2.0 0.00 0.00 0.00 78 1008.9
20260508063223 37 239 1.0 2.0 0.00 0.00 0.00 79 1009.0
20260508063109 37 239 1.0 2.0 0.00 0.00 0.00 79 1008.9
20260508063013 37 239 1.0 2.0 0.00 0.00 0.00 79 1009.1
20260508062938 37 239 1.0 2.0 0.00 0.00 0.00 79 1009.0
20260508062822 37 239 1.0 2.0 0.00 0.00 0.00 79 1009.1
20260508062706 37 239 2.0 2.0 0.00 0.00 0.00 79 1009.0
20260508062630 37 240 2.0 2.0 0.00 0.00 0.00 79 1009.0
20260508062514 37 240 1.0 2.0 0.00 0.00 0.00 79 1009.0
20260508062422 37 240 1.0 2.0 0.00 0.00 0.00 79 1009.1
20260508062307 37 240 1.0 2.0 0.00 0.00 0.00 79 1009.1
20260508062230 37 240 1.0 2.0 0.00 0.00 0.00 79 1009.1
20260508062108 36 240 1.0 2.0 0.00 0.00 0.00 79 1009.1
20260508062032 36 240 1.0 2.0 0.00 0.00 0.00 79 1009.1
20260508061916 36 240 1.0 2.0 0.00 0.00 0.00 79 1009.1
20260508061821 36 240 1.0 2.0 0.00 0.00 0.00 79 1009.1
20260508061729 36 240 1.0 2.0 0.00 0.00 0.00 79 1009.1
20260508061613 36 240 1.0 2.0 0.00 0.00 0.00 79 1009.1
20260508061537 36 240 1.0 2.0 0.00 0.00 0.00 79 1009.1
20260508061420 36 240 1.0 2.0 0.00 0.00 0.00 79 1009.1
20260508061324 36 240 1.0 2.0 0.00 0.00 0.00 79 1009.2
20260508061210 36 240 1.0 2.0 0.00 0.00 0.00 79 1009.1
20260508061117 36 240 1.0 2.0 0.00 0.00 0.00 79 1009.2
20260508061021 37 240 1.0 2.0 0.00 0.00 0.00 79 1009.1
20260508060924 36 240 1.0 2.0 0.00 0.00 0.00 79 1009.2
20260508060808 36 240 1.0 3.0 0.00 0.00 0.00 80 1009.2
20260508060732 36 240 1.0 3.0 0.00 0.00 0.00 80 1009.1
20260508060615 36 240 1.0 3.0 0.00 0.00 0.00 80 1009.2
20260508060519 36 240 1.0 3.0 0.00 0.00 0.00 80 1009.1
20260508060408 37 240 1.0 3.0 0.00 0.00 0.00 81 1009.1
20260508060333 37 240 1.0 3.0 0.00 0.00 0.00 81 1009.1
20260508060209 37 240 1.0 3.0 0.00 0.00 0.00 82 1009.1
20260508060113 37 240 1.0 3.0 0.00 0.00 0.00 82 1009.1
20260508060018 37 240 1.0 3.0 0.00 0.00 0.00 82 1009.2
20260508055941 37 240 1.0 3.0 0.00 0.00 0.00 82 1009.2
20260508055809 37 240 1.0 3.0 0.00 0.00 0.00 82 1009.2
20260508055712 37 240 2.0 3.0 0.00 0.00 0.00 82 1009.2
20260508055616 37 240 2.0 3.0 0.00 0.00 0.00 82 1009.2
20260508055520 37 240 2.0 3.0 0.00 0.00 0.00 81 1009.2
20260508055424 37 240 1.0 3.0 0.00 0.00 0.00 81 1009.2
20260508055308 37 240 1.0 3.0 0.00 0.00 0.00 81 1009.2
20260508055217 37 240 1.0 3.0 0.00 0.00 0.00 81 1009.2
20260508055121 37 240 1.0 3.0 0.00 0.00 0.00 81 1009.2
20260508055006 37 240 1.0 3.0 0.00 0.00 0.00 81 1009.2
20260508054911 37 240 2.0 3.0 0.00 0.00 0.00 81 1009.2
20260508054815 37 240 2.0 3.0 0.00 0.00 0.00 81 1009.2
20260508054721 37 240 1.0 3.0 0.00 0.00 0.00 81 1009.2
20260508054608 37 240 1.0 3.0 0.00 0.00 0.00 80 1009.2
20260508054513 37 240 1.0 3.0 0.00 0.00 0.00 80 1009.2
20260508054418 37 240 2.0 3.0 0.00 0.00 0.00 80 1009.2
20260508054323 37 240 2.0 3.0 0.00 0.00 0.00 80 1009.3
20260508054227 37 240 1.0 3.0 0.00 0.00 0.00 80 1009.3
20260508054110 37 240 1.0 3.0 0.00 0.00 0.00 80 1009.3
20260508054039 37 240 1.0 3.0 0.00 0.00 0.00 80 1009.3
20260508053922 37 240 1.0 3.0 0.00 0.00 0.00 79 1009.2
20260508053826 37 240 1.0 3.0 0.00 0.00 0.00 79 1009.3
20260508053730 38 240 1.0 3.0 0.00 0.00 0.00 79 1009.3
20260508053633 38 240 1.0 3.0 0.00 0.00 0.00 79 1009.3
20260508053516 38 240 1.0 3.0 0.00 0.00 0.00 79 1009.3
20260508053441 38 240 1.0 3.0 0.00 0.00 0.00 78 1009.3
20260508053308 38 240 2.0 3.0 0.00 0.00 0.00 78 1009.3
20260508053232 38 240 2.0 3.0 0.00 0.00 0.00 78 1009.4
20260508053134 38 240 2.0 3.0 0.00 0.00 0.00 78 1009.4
20260508053017 38 240 1.0 3.0 0.00 0.00 0.00 78 1009.3
20260508052920 38 240 2.0 3.0 0.00 0.00 0.00 77 1009.4
20260508052824 38 240 2.0 3.0 0.00 0.00 0.00 77 1009.4
20260508052709 38 240 1.0 3.0 0.00 0.00 0.00 76 1009.3
20260508052616 38 240 1.0 3.0 0.00 0.00 0.00 76 1009.3
20260508052520 38 239 1.0 2.0 0.00 0.00 0.00 75 1009.4
20260508052444 38 239 1.0 2.0 0.00 0.00 0.00 75 1009.4
20260508052308 38 239 1.0 2.0 0.00 0.00 0.00 74 1009.4
20260508052213 38 239 0.0 2.0 0.00 0.00 0.00 74 1009.4
20260508052138 38 240 1.0 2.0 0.00 0.00 0.00 73 1009.4
20260508052022 38 239 1.0 2.0 0.00 0.00 0.00 73 1009.4
20260508051930 38 239 1.0 2.0 0.00 0.00 0.00 73 1009.4
20260508051812 38 240 0.0 2.0 0.00 0.00 0.00 73 1009.4
20260508051716 38 239 0.0 2.0 0.00 0.00 0.00 73 1009.4
20260508051621 38 239 0.0 0.0 0.00 0.00 0.00 73 1009.4
20260508051525 38 239 0.0 0.0 0.00 0.00 0.00 72 1009.4
20260508051409 38 239 0.0 0.0 0.00 0.00 0.00 72 1009.4
20260508051317 38 239 0.0 0.0 0.00 0.00 0.00 72 1009.4
20260508051242 38 239 0.0 0.0 0.00 0.00 0.00 73 1009.4
20260508051106 38 239 0.0 0.0 0.00 0.00 0.00 73 1009.3
20260508051031 38 239 0.0 2.0 0.00 0.00 0.00 73 1009.4
20260508050933 38 239 0.0 2.0 0.00 0.00 0.00 73 1009.4
20260508050836 38 239 0.0 2.0 0.00 0.00 0.00 73 1009.3
20260508050739 38 239 0.0 3.0 0.00 0.00 0.00 74 1009.4
20260508050622 38 239 0.0 3.0 0.00 0.00 0.00 74 1009.3
20260508050510 38 239 0.0 3.0 0.00 0.00 0.00 75 1009.4
20260508050433 38 239 0.0 3.0 0.00 0.00 0.00 75 1009.4
20260508050309 38 239 1.0 3.0 0.00 0.00 0.00 74 1009.4
20260508050234 38 239 1.0 3.0 0.00 0.00 0.00 75 1009.5
20260508050117 38 240 1.0 3.0 0.00 0.00 0.00 75 1009.4
20260508050015 38 240 1.0 3.0 0.00 0.00 0.00 75 1009.5
20260508045919 37 240 1.0 3.0 0.00 0.00 0.00 75 1009.5
20260508045808 37 239 1.0 2.0 0.00 0.00 0.00 75 1009.5
20260508045713 37 239 1.0 2.0 0.00 0.00 0.00 76 1009.5
20260508045617 37 239 1.0 2.0 0.00 0.00 0.00 76 1009.5
20260508045521 37 239 1.0 2.0 0.00 0.00 0.00 76 1009.5
20260508045406 37 239 1.0 2.0 0.00 0.00 0.00 76 1009.5
20260508045311 37 239 1.0 2.0 0.00 0.00 0.00 76 1009.5
20260508045219 37 239 1.0 2.0 0.00 0.00 0.00 77 1009.6
20260508045122 37 239 1.0 2.0 0.00 0.00 0.00 77 1009.5
20260508045046 37 239 1.0 2.0 0.00 0.00 0.00 77 1009.5
20260508044929 37 239 1.0 2.0 0.00 0.00 0.00 78 1009.5
20260508044806 37 239 1.0 2.0 0.00 0.00 0.00 80 1009.5
20260508044731 37 239 1.0 2.0 0.00 0.00 0.00 80 1009.5
20260508044613 37 239 1.0 3.0 0.00 0.00 0.00 80 1009.5
20260508044542 37 239 1.0 3.0 0.00 0.00 0.00 80 1009.5
20260508044424 37 239 1.0 3.0 0.00 0.00 0.00 80 1009.5
20260508044308 37 239 1.0 3.0 0.00 0.00 0.00 80 1009.5
20260508044231 37 239 1.0 3.0 0.00 0.00 0.00 80 1009.6
20260508044109 37 239 1.0 3.0 0.00 0.00 0.00 80 1009.6
20260508044013 37 239 1.0 3.0 0.00 0.00 0.00 80 1009.6
20260508043937 37 239 1.0 3.0 0.00 0.00 0.00 80 1009.6
20260508043825 37 239 1.0 3.0 0.00 0.00 0.00 80 1009.6
20260508043729 38 240 1.0 3.0 0.00 0.00 0.00 80 1009.5
20260508043613 37 239 1.0 3.0 0.00 0.00 0.00 80 1009.6
20260508043518 37 239 2.0 3.0 0.00 0.00 0.00 80 1009.6
20260508043423 37 239 2.0 3.0 0.00 0.00 0.00 80 1009.7
20260508043347 37 56 1.0 2.0 0.00 0.00 0.00 80 1009.6
20260508043229 37 56 1.0 2.0 0.00 0.00 0.00 79 1009.7
20260508043117 37 56 1.0 2.0 0.00 0.00 0.00 79 1009.7
20260508043022 37 56 1.0 2.0 0.00 0.00 0.00 79 1009.7
20260508042946 37 56 1.0 2.0 0.00 0.00 0.00 79 1009.7
20260508042830 37 56 1.0 2.0 0.00 0.00 0.00 78 1009.8
20260508042732 37 57 1.0 2.0 0.00 0.00 0.00 78 1009.8
20260508042609 37 56 1.0 2.0 0.00 0.00 0.00 77 1009.8
20260508042513 37 57 1.0 2.0 0.00 0.00 0.00 76 1009.8
20260508042423 37 57 1.0 2.0 0.00 0.00 0.00 76 1009.9
20260508042308 37 57 1.0 2.0 0.00 0.00 0.00 74 1009.8
20260508042214 37 56 1.0 2.0 0.00 0.00 0.00 74 1009.9
20260508042140 37 56 1.0 2.0 0.00 0.00 0.00 73 1009.9
20260508042024 37 57 1.0 2.0 0.00 0.00 0.00 73 1009.9
20260508041910 37 57 1.0 2.0 0.00 0.00 0.00 73 1009.9
20260508041819 37 56 1.0 1.0 0.00 0.00 0.00 73 1009.9
20260508041725 37 56 0.0 1.0 0.00 0.00 0.00 73 1009.9
20260508041611 37 56 0.0 1.0 0.00 0.00 0.00 73 1009.9
20260508041516 37 57 0.0 1.0 0.00 0.00 0.00 73 1009.9
20260508041421 37 57 0.0 1.0 0.00 0.00 0.00 74 1009.9
20260508041311 38 57 0.0 1.0 0.00 0.00 0.00 74 1009.9
20260508041217 38 57 0.0 1.0 0.00 0.00 0.00 73 1009.9
20260508041121 38 56 0.0 1.0 0.00 0.00 0.00 73 1009.9
20260508041025 38 56 0.0 1.0 0.00 0.00 0.00 73 1009.9
20260508040910 38 56 0.0 1.0 0.00 0.00 0.00 73 1009.9
20260508040834 38 56 0.0 1.0 0.00 0.00 0.00 72 1009.9
20260508040718 38 57 0.0 1.0 0.00 0.00 0.00 72 1009.9
20260508040607 38 57 0.0 1.0 0.00 0.00 0.00 72 1009.9
20260508040511 38 57 0.0 1.0 0.00 0.00 0.00 72 1009.9
20260508040416 38 57 0.0 1.0 0.00 0.00 0.00 72 1010.0
20260508040320 38 57 0.0 1.0 0.00 0.00 0.00 72 1010.0
20260508040225 38 57 0.0 1.0 0.00 0.00 0.00 72 1009.9
20260508040114 38 57 0.0 1.0 0.00 0.00 0.00 72 1010.0
20260508040018 38 57 0.0 1.0 0.00 0.00 0.00 72 1010.0
20260508035942 38 57 0.0 0.0 0.00 0.00 0.00 72 1010.0
20260508035806 39 57 0.0 0.0 0.00 0.00 0.00 72 1010.0
20260508035711 39 57 0.0 0.0 0.00 0.00 0.00 72 1010.0
20260508035615 39 57 0.0 0.0 0.00 0.00 0.00 72 1010.0
20260508035519 39 57 0.0 0.0 0.00 0.00 0.00 72 1010.0
20260508035408 39 57 0.0 0.0 0.00 0.00 0.00 72 1010.0
20260508035312 39 57 0.0 0.0 0.00 0.00 0.00 73 1010.0
20260508035216 39 57 0.0 0.0 0.00 0.00 0.00 73 1010.0
20260508035120 39 57 0.0 1.0 0.00 0.00 0.00 73 1010.1
20260508035025 39 57 0.0 1.0 0.00 0.00 0.00 73 1010.1
20260508034913 39 57 0.0 1.0 0.00 0.00 0.00 73 1010.0
20260508034818 39 57 0.0 1.0 0.00 0.00 0.00 72 1010.1
20260508034743 39 57 0.0 1.0 0.00 0.00 0.00 72 1010.1
20260508034608 39 57 0.0 1.0 0.00 0.00 0.00 72 1010.1
20260508034532 39 57 0.0 1.0 0.00 0.00 0.00 72 1010.2
20260508034408 39 57 0.0 1.0 0.00 0.00 0.00 72 1010.1
20260508034331 39 57 1.0 1.0 0.00 0.00 0.00 71 1010.1
20260508034236 39 57 1.0 1.0 0.00 0.00 0.00 70 1010.1
20260508034144 39 56 1.0 1.0 0.00 0.00 0.00 70 1010.2
20260508034009 40 56 1.0 1.0 0.00 0.00 0.00 69 1010.1
20260508033913 40 56 0.0 1.0 0.00 0.00 0.00 69 1010.2
20260508033817 40 56 0.0 0.0 0.00 0.00 0.00 69 1010.2
20260508033741 40 56 0.0 0.0 0.00 0.00 0.00 69 1010.2
20260508033622 40 56 0.0 0.0 0.00 0.00 0.00 70 1010.2
20260508033511 40 56 0.0 0.0 0.00 0.00 0.00 71 1010.2
20260508033415 40 56 0.0 0.0 0.00 0.00 0.00 72 1010.3
20260508033319 40 56 0.0 0.0 0.00 0.00 0.00 73 1010.2
20260508033223 40 57 0.0 0.0 0.00 0.00 0.00 73 1010.1
20260508033127 40 56 0.0 1.0 0.00 0.00 0.00 74 1010.2
20260508033030 41 56 0.0 1.0 0.00 0.00 0.00 74 1010.2
20260508032912 41 56 0.0 1.0 0.00 0.00 0.00 74 1010.2
20260508032837 41 56 0.0 1.0 0.00 0.00 0.00 74 1010.2
20260508032724 41 56 0.0 1.0 0.00 0.00 0.00 74 1010.2
20260508032628 41 56 0.0 1.0 0.00 0.00 0.00 73 1010.2
20260508032551 41 56 0.0 1.0 0.00 0.00 0.00 73 1010.2
20260508032406 41 56 0.0 1.0 0.00 0.00 0.00 72 1010.2
20260508032330 41 56 0.0 1.0 0.00 0.00 0.00 73 1010.1
20260508032207 41 57 1.0 1.0 0.00 0.00 0.00 73 1010.1
20260508032115 41 56 1.0 1.0 0.00 0.00 0.00 73 1010.2
20260508032019 41 56 1.0 1.0 0.00 0.00 0.00 72 1010.2
20260508031923 41 57 1.0 1.0 0.00 0.00 0.00 72 1010.2
20260508031807 41 57 1.0 1.0 0.00 0.00 0.00 72 1010.2
20260508031711 41 56 0.0 1.0 0.00 0.00 0.00 70 1010.2
20260508031614 41 56 0.0 0.0 0.00 0.00 0.00 69 1010.2
20260508031521 41 56 0.0 0.0 0.00 0.00 0.00 68 1010.2
20260508031424 41 56 0.0 0.0 0.00 0.00 0.00 68 1010.2
20260508031309 41 56 0.0 0.0 0.00 0.00 0.00 67 1010.2
20260508031213 41 57 0.0 0.0 0.00 0.00 0.00 67 1010.2
20260508031116 41 56 0.0 0.0 0.00 0.00 0.00 66 1010.2
20260508031020 41 57 0.0 0.0 0.00 0.00 0.00 66 1010.2
20260508030908 42 56 0.0 0.0 0.00 0.00 0.00 66 1010.2
20260508030831 42 57 0.0 0.0 0.00 0.00 0.00 65 1010.2
20260508030709 42 56 0.0 0.0 0.00 0.00 0.00 64 1010.2
20260508030612 42 56 0.0 0.0 0.00 0.00 0.00 64 1010.2
20260508030518 42 56 0.0 0.0 0.00 0.00 0.00 64 1010.2
20260508030424 42 56 0.0 0.0 0.00 0.00 0.00 64 1010.3
20260508030312 42 57 0.0 0.0 0.00 0.00 0.00 64 1010.3
20260508030216 42 56 0.0 0.0 0.00 0.00 0.00 65 1010.2
20260508030121 42 56 0.0 0.0 0.00 0.00 0.00 66 1010.3
20260508030006 42 57 0.0 0.0 0.00 0.00 0.00 67 1010.2
20260508025930 43 56 0.0 0.0 0.00 0.00 0.00 67 1010.2
20260508025806 43 56 0.0 0.0 0.00 0.00 0.00 67 1010.2
20260508025715 43 57 0.0 0.0 0.00 0.00 0.00 65 1010.3
20260508025618 43 56 0.0 0.0 0.00 0.00 0.00 62 1010.3
20260508025542 43 56 0.0 0.0 0.00 0.00 0.00 62 1010.2
20260508025425 43 56 0.0 0.0 0.00 0.00 0.00 62 1010.2
20260508025310 43 56 0.0 0.0 0.00 0.00 0.00 62 1010.2
20260508025233 43 56 0.0 0.0 0.00 0.00 0.00 62 1010.3
20260508025116 43 57 0.0 0.0 0.00 0.00 0.00 62 1010.2
20260508025024 43 56 0.0 0.0 0.00 0.00 0.00 63 1010.2
20260508024929 43 56 0.0 0.0 0.00 0.00 0.00 63 1010.2
20260508024807 43 56 0.0 0.0 0.00 0.00 0.00 63 1010.2
20260508024711 44 56 0.0 0.0 0.00 0.00 0.00 63 1010.2
20260508024636 44 56 0.0 0.0 0.00 0.00 0.00 63 1010.3
20260508024518 44 57 0.0 0.0 0.00 0.00 0.00 62 1010.2
20260508024442 44 56 0.0 0.0 0.00 0.00 0.00 62 1010.2
20260508024308 44 57 0.0 1.0 0.00 0.00 0.00 61 1010.3
20260508024234 44 57 0.0 1.0 0.00 0.00 0.00 60 1010.2
20260508024118 44 56 0.0 1.0 0.00 0.00 0.00 60 1010.1
20260508024022 44 57 0.0 1.0 0.00 0.00 0.00 60 1010.2
20260508023926 44 57 0.0 1.0 0.00 0.00 0.00 60 1010.1
20260508023810 44 57 0.0 1.0 0.00 0.00 0.00 60 1010.2
20260508023734 44 56 0.0 2.0 0.00 0.00 0.00 59 1010.1
20260508023622 44 57 0.0 2.0 0.00 0.00 0.00 59 1010.1
20260508023507 44 57 0.0 2.0 0.00 0.00 0.00 59 1010.1
20260508023413 45 57 1.0 2.0 0.00 0.00 0.00 59 1010.1
20260508023318 45 57 1.0 2.0 0.00 0.00 0.00 58 1010.1
20260508023222 45 57 1.0 2.0 0.00 0.00 0.00 58 1010.1
20260508023110 45 57 1.0 2.0 0.00 0.00 0.00 58 1010.1
20260508023014 45 57 1.0 2.0 0.00 0.00 0.00 58 1010.1
20260508022919 45 57 1.0 2.0 0.00 0.00 0.00 58 1010.1
20260508022844 45 57 2.0 2.0 0.00 0.00 0.00 58 1010.1
20260508022727 45 57 1.0 2.0 0.00 0.00 0.00 58 1010.1
20260508022652 45 57 1.0 2.0 0.00 0.00 0.00 58 1010.0
20260508022508 46 57 1.0 2.0 0.00 0.00 0.00 59 1010.1
20260508022417 46 57 1.0 2.0 0.00 0.00 0.00 58 1010.1
20260508022342 46 57 1.0 2.0 0.00 0.00 0.00 57 1010.2
20260508022206 46 57 1.0 2.0 0.00 0.00 0.00 56 1010.1
20260508022129 46 57 1.0 2.0 0.00 0.00 0.00 56 1010.1
20260508022033 46 57 1.0 1.0 0.00 0.00 0.00 55 1010.1
20260508021916 46 57 0.0 1.0 0.00 0.00 0.00 54 1010.0
20260508021820 46 57 0.0 1.0 0.00 0.00 0.00 54 1010.1
20260508021709 46 57 0.0 1.0 0.00 0.00 0.00 54 1010.1
20260508021613 46 57 0.0 1.0 0.00 0.00 0.00 54 1010.1
20260508021517 47 57 0.0 1.0 0.00 0.00 0.00 55 1010.1
20260508021440 47 57 0.0 1.0 0.00 0.00 0.00 53 1010.0
20260508021325 47 57 0.0 2.0 0.00 0.00 0.00 53 1010.0
20260508021228 47 57 0.0 3.0 0.00 0.00 0.00 53 1010.0
20260508021110 47 57 0.0 3.0 0.00 0.00 0.00 53 1010.1
20260508021019 47 57 0.0 3.0 0.00 0.00 0.00 54 1010.0
20260508020923 47 57 0.0 4.0 0.00 0.00 0.00 54 1010.0
20260508020807 47 57 0.0 5.0 0.00 0.00 0.00 53 1010.0
20260508020732 47 57 0.0 5.0 0.00 0.00 0.00 54 1010.0
20260508020607 48 57 1.0 5.0 0.00 0.00 0.00 55 1010.0
20260508020512 48 57 2.0 5.0 0.00 0.00 0.00 52 1010.0
20260508020421 48 57 2.0 5.0 0.00 0.00 0.00 52 1010.0
20260508020305 48 57 3.0 5.0 0.00 0.00 0.00 53 1010.0
20260508020230 48 57 3.0 5.0 0.00 0.00 0.00 53 1010.0
20260508020106 48 56 2.0 5.0 0.00 0.00 0.00 51 1009.9
20260508020010 48 55 0.0 4.0 0.00 0.00 0.00 49 1010.0
20260508015914 49 292 0.0 2.0 0.00 0.00 0.00 50 1010.0
20260508015819 49 292 1.0 2.0 0.00 0.00 0.00 49 1009.9
20260508015709 49 292 1.0 2.0 0.00 0.00 0.00 49 1010.0
20260508015632 49 292 1.0 2.0 0.00 0.00 0.00 50 1009.9
20260508015516 49 292 1.0 2.0 0.00 0.00 0.00 48 1009.9
20260508015420 49 292 1.0 2.0 0.00 0.00 0.00 51 1009.9
20260508015306 49 292 1.0 2.0 0.00 0.00 0.00 45 1009.9
20260508015209 50 292 1.0 2.0 0.00 0.00 0.00 45 1009.9
20260508015117 50 292 1.0 2.0 0.00 0.00 0.00 45 1009.9
20260508015020 50 292 1.0 2.0 0.00 0.00 0.00 45 1009.9
20260508014906 50 292 1.0 2.0 0.00 0.00 0.00 45 1009.9
20260508014810 50 292 1.0 2.0 0.00 0.00 0.00 45 1009.9
20260508014716 50 292 1.0 2.0 0.00 0.00 0.00 45 1009.8
20260508014639 50 292 1.0 2.0 0.00 0.00 0.00 46 1009.8
20260508014506 50 292 1.0 2.0 0.00 0.00 0.00 45 1009.8
20260508014431 51 292 1.0 2.0 0.00 0.00 0.00 45 1009.8
20260508014314 51 292 1.0 2.0 0.00 0.00 0.00 44 1009.8
20260508014219 51 292 1.0 2.0 0.00 0.00 0.00 43 1009.8
20260508014121 51 292 1.0 2.0 0.00 0.00 0.00 44 1009.7
20260508014025 51 292 1.0 2.0 0.00 0.00 0.00 45 1009.8
20260508013929 51 292 1.0 2.0 0.00 0.00 0.00 44 1009.8
20260508013816 51 292 1.0 2.0 0.00 0.00 0.00 44 1009.8
20260508013720 51 292 1.0 2.0 0.00 0.00 0.00 44 1009.8
20260508013625 51 292 1.0 2.0 0.00 0.00 0.00 44 1009.8
20260508013529 51 292 1.0 2.0 0.00 0.00 0.00 44 1009.8
20260508013413 52 292 1.0 2.0 0.00 0.00 0.00 43 1009.7
20260508013337 52 292 1.0 2.0 0.00 0.00 0.00 43 1009.7
20260508013241 52 292 1.0 4.0 0.00 0.00 0.00 43 1009.7
20260508013107 52 292 1.0 4.0 0.00 0.00 0.00 43 1009.7
20260508013011 52 292 1.0 4.0 0.00 0.00 0.00 43 1009.7
20260508012916 52 292 1.0 4.0 0.00 0.00 0.00 44 1009.6
20260508012821 52 293 1.0 4.0 0.00 0.00 0.00 44 1009.7
20260508012724 52 293 1.0 4.0 0.00 0.00 0.00 44 1009.7
20260508012610 53 293 2.0 4.0 0.00 0.00 0.00 44 1009.6
20260508012517 53 293 2.0 4.0 0.00 0.00 0.00 44 1009.7
20260508012422 53 286 2.0 4.0 0.00 0.00 0.00 43 1009.7
20260508012308 53 330 2.0 4.0 0.00 0.00 0.00 42 1009.6
20260508012210 53 331 2.0 7.0 0.00 0.00 0.00 43 1009.7
20260508012115 53 331 2.0 7.0 0.00 0.00 0.00 44 1009.6
20260508012039 53 286 2.0 7.0 0.00 0.00 0.00 45 1009.7
20260508011927 53 296 2.0 7.0 0.00 0.00 0.00 46 1009.7
20260508011851 53 296 2.0 7.0 0.00 0.00 0.00 46 1009.6
20260508011705 53 296 3.0 7.0 0.00 0.00 0.00 43 1009.6
20260508011610 53 296 3.0 8.0 0.00 0.00 0.00 43 1009.6
20260508011514 54 309 3.0 8.0 0.00 0.00 0.00 43 1009.6
20260508011418 54 284 4.0 8.0 0.00 0.00 0.00 43 1009.7
20260508011343 54 286 4.0 8.0 0.00 0.00 0.00 43 1009.6
20260508011231 54 306 4.0 8.0 0.00 0.00 0.00 41 1009.5
20260508011108 54 303 4.0 8.0 0.00 0.00 0.00 42 1009.6
20260508011011 54 317 4.0 8.0 0.00 0.00 0.00 40 1009.6
20260508010915 54 298 4.0 8.0 0.00 0.00 0.00 41 1009.6
20260508010819 54 323 4.0 8.0 0.00 0.00 0.00 40 1009.6
20260508010743 54 300 5.0 8.0 0.00 0.00 0.00 41 1009.5
20260508010610 54 298 5.0 8.0 0.00 0.00 0.00 42 1009.5
20260508010534 54 296 4.0 8.0 0.00 0.00 0.00 42 1009.6
20260508010417 54 304 3.0 8.0 0.00 0.00 0.00 41 1009.6
20260508010321 54 280 3.0 8.0 0.00 0.00 0.00 41 1009.6
20260508010206 55 283 4.0 8.0 0.00 0.00 0.00 40 1009.6
20260508010110 55 294 4.0 8.0 0.00 0.00 0.00 39 1009.5
20260508010013 55 310 3.0 8.0 0.00 0.00 0.00 40 1009.6
20260508005920 55 293 3.0 8.0 0.00 0.00 0.00 40 1009.5
20260508005805 55 302 4.0 8.0 0.00 0.00 0.00 39 1009.5
20260508005710 55 296 6.0 8.0 0.00 0.00 0.00 38 1009.5
20260508005616 55 286 6.0 8.0 0.00 0.00 0.00 38 1009.6
20260508005520 55 296 5.0 8.0 0.00 0.00 0.00 39 1009.5
20260508005408 56 306 4.0 10.0 0.00 0.00 0.00 39 1009.5
20260508005311 56 300 4.0 10.0 0.00 0.00 0.00 38 1009.5
20260508005215 56 293 4.0 10.0 0.00 0.00 0.00 37 1009.5
20260508005139 56 299 4.0 10.0 0.00 0.00 0.00 38 1009.5
20260508005023 56 348 5.0 10.0 0.00 0.00 0.00 36 1009.5
20260508004908 56 319 4.0 12.0 0.00 0.00 0.00 37 1009.5
20260508004813 56 311 5.0 12.0 0.00 0.00 0.00 38 1009.5
20260508004722 56 311 6.0 12.0 0.00 0.00 0.00 37 1009.5
20260508004606 56 302 5.0 13.0 0.00 0.00 0.00 37 1009.5
20260508004511 56 335 5.0 13.0 0.00 0.00 0.00 36 1009.4
20260508004435 56 301 5.0 13.0 0.00 0.00 0.00 36 1009.4
20260508004318 56 310 4.0 13.0 0.00 0.00 0.00 36 1009.5
20260508004223 56 313 5.0 13.0 0.00 0.00 0.00 37 1009.5
20260508004132 56 317 7.0 13.0 0.00 0.00 0.00 35 1009.4
20260508004007 56 5 8.0 13.0 0.00 0.00 0.00 36 1009.4
20260508003911 56 323 8.0 13.0 0.00 0.00 0.00 35 1009.5
20260508003836 56 327 6.0 13.0 0.00 0.00 0.00 36 1009.5
20260508003719 56 355 7.0 13.0 0.00 0.00 0.00 37 1009.5
20260508003624 56 350 7.0 11.0 0.00 0.00 0.00 37 1009.5
20260508003529 56 298 5.0 10.0 0.00 0.00 0.00 37 1009.6
20260508003417 56 323 5.0 10.0 0.00 0.00 0.00 36 1009.6
20260508003321 56 312 5.0 10.0 0.00 0.00 0.00 37 1009.6
20260508003245 56 10 4.0 10.0 0.00 0.00 0.00 37 1009.6
20260508003128 56 350 3.0 10.0 0.00 0.00 0.00 37 1009.6
20260508003006 56 304 4.0 10.0 0.00 0.00 0.00 37 1009.6
20260508002910 56 326 4.0 10.0 0.00 0.00 0.00 36 1009.6
20260508002813 56 296 4.0 10.0 0.00 0.00 0.00 36 1009.5
20260508002720 56 298 6.0 10.0 0.00 0.00 0.00 35 1009.5
20260508002606 56 316 8.0 10.0 0.00 0.00 0.00 36 1009.5
20260508002509 56 302 7.0 10.0 0.00 0.00 0.00 35 1009.5
20260508002414 56 318 6.0 10.0 0.00 0.00 0.00 36 1009.5
20260508002317 56 320 6.0 10.0 0.00 0.00 0.00 37 1009.5
20260508002220 56 287 5.0 10.0 0.00 0.00 0.00 36 1009.5
20260508002129 56 291 4.0 10.0 0.00 0.00 0.00 36 1009.6
20260508002006 56 321 4.0 8.0 0.00 0.00 0.00 36 1009.6
20260508001909 56 300 3.0 8.0 0.00 0.00 0.00 36 1009.5
20260508001811 56 302 3.0 8.0 0.00 0.00 0.00 36 1009.6
20260508001714 56 346 3.0 8.0 0.00 0.00 0.00 38 1009.5
20260508001618 56 328 3.0 10.0 0.00 0.00 0.00 36 1009.5
20260508001525 56 306 4.0 10.0 0.00 0.00 0.00 36 1009.6
20260508001409 56 315 4.0 10.0 0.00 0.00 0.00 34 1009.6
20260508001312 56 5 3.0 10.0 0.00 0.00 0.00 35 1009.6
20260508001214 56 355 3.0 10.0 0.00 0.00 0.00 36 1009.6
20260508001118 56 360 4.0 11.0 0.00 0.00 0.00 35 1009.6
20260508001039 56 329 5.0 11.0 0.00 0.00 0.00 35 1009.6
20260508000927 56 346 5.0 11.0 0.00 0.00 0.00 35 1009.6
20260508000829 56 315 5.0 11.0 0.00 0.00 0.00 35 1009.6
20260508000752 56 355 6.0 11.0 0.00 0.00 0.00 34 1009.6
20260508000607 56 350 6.0 11.0 0.00 0.00 0.00 35 1009.7
20260508000511 56 5 7.0 11.0 0.00 0.00 0.00 35 1009.7
20260508000413 56 315 6.0 12.0 0.00 0.00 0.00 36 1009.6
20260508000317 56 347 5.0 12.0 0.00 0.00 0.00 35 1009.7
20260508000242 57 331 5.0 12.0 0.00 0.00 0.00 35 1009.6
20260508000106 57 316 6.0 12.0 0.00 0.00 0.00 35 1009.5
20260508000030 57 333 7.0 16.0 0.00 0.00 0.00 35 1009.6
20260507235913 57 312 7.0 16.0 0.00 0.00 0.00 35 1009.6
20260507235835 57 328 6.0 16.0 0.00 0.00 0.00 34 1009.6
20260507235717 57 324 7.0 16.0 0.00 0.00 0.00 35 1009.7
20260507235620 57 346 8.0 16.0 0.00 0.00 0.00 34 1009.7
20260507235507 57 333 8.0 16.0 0.00 0.00 0.00 35 1009.7
20260507235410 57 284 8.0 17.0 0.00 0.00 0.00 35 1009.7
20260507235313 57 338 10.0 17.0 0.00 0.00 0.00 34 1009.7
20260507235216 57 302 11.0 17.0 0.00 0.00 0.00 34 1009.6
20260507235120 57 312 11.0 17.0 0.00 0.00 0.00 34 1009.6
20260507235023 57 313 9.0 17.0 0.00 0.00 0.00 35 1009.6
20260507234909 57 319 9.0 17.0 0.00 0.00 0.00 35 1009.5
20260507234831 57 277 10.0 17.0 0.00 0.00 0.00 35 1009.6
20260507234707 57 300 10.0 17.0 0.00 0.00 0.00 35 1009.6
20260507234631 57 300 10.0 17.0 0.00 0.00 0.00 35 1009.7
20260507234513 57 338 8.0 17.0 0.00 0.00 0.00 33 1009.8
20260507234413 57 355 8.0 17.0 0.00 0.00 0.00 35 1009.7
20260507234315 57 317 7.0 17.0 0.00 0.00 0.00 34 1009.7
20260507234223 57 336 6.0 14.0 0.00 0.00 0.00 33 1009.7
20260507234107 57 307 4.0 9.0 0.00 0.00 0.00 36 1009.7
20260507234009 57 317 3.0 12.0 0.00 0.00 0.00 36 1009.8
20260507233912 57 292 5.0 12.0 0.00 0.00 0.00 35 1009.8
20260507233836 57 319 5.0 12.0 0.00 0.00 0.00 34 1009.8
20260507233718 57 318 6.0 12.0 0.00 0.00 0.00 33 1009.9
20260507233606 57 18 5.0 12.0 0.00 0.00 0.00 34 1009.9
20260507233508 57 355 4.0 12.0 0.00 0.00 0.00 35 1009.8
20260507233431 57 331 3.0 12.0 0.00 0.00 0.00 36 1009.8
20260507233307 57 355 6.0 13.0 0.00 0.00 0.00 34 1009.8
20260507233210 57 360 8.0 13.0 0.00 0.00 0.00 33 1009.8
20260507233133 57 30 7.0 13.0 0.00 0.00 0.00 33 1009.8
20260507233036 58 5 7.0 13.0 0.00 0.00 0.00 33 1009.9
20260507232919 58 355 6.0 13.0 0.00 0.00 0.00 32 1009.7
20260507232826 58 29 6.0 13.0 0.00 0.00 0.00 35 1009.8
20260507232708 58 306 7.0 13.0 0.00 0.00 0.00 33 1009.8
20260507232632 58 42 7.0 13.0 0.00 0.00 0.00 32 1009.9
20260507232507 58 355 7.0 13.0 0.00 0.00 0.00 34 1009.9
20260507232431 58 360 7.0 11.0 0.00 0.00 0.00 34 1009.9
20260507232308 58 340 6.0 15.0 0.00 0.00 0.00 34 1009.9
20260507232215 58 310 7.0 15.0 0.00 0.00 0.00 33 1009.9
20260507232139 58 302 4.0 15.0 0.00 0.00 0.00 33 1009.9
20260507232021 58 345 3.0 15.0 0.00 0.00 0.00 34 1009.9
20260507231926 58 13 3.0 15.0 0.00 0.00 0.00 35 1010.0
20260507231830 58 334 3.0 15.0 0.00 0.00 0.00 35 1010.0
20260507231713 58 296 3.0 15.0 0.00 0.00 0.00 33 1010.0
20260507231617 58 311 6.0 15.0 0.00 0.00 0.00 33 1009.9
20260507231521 58 333 9.0 15.0 0.00 0.00 0.00 33 1010.0
20260507231407 58 306 10.0 15.0 0.00 0.00 0.00 34 1009.9
20260507231310 58 331 9.0 14.0 0.00 0.00 0.00 34 1010.0
20260507231235 58 294 8.0 15.0 0.00 0.00 0.00 33 1009.9
20260507231119 58 323 9.0 15.0 0.00 0.00 0.00 33 1009.9
20260507231043 58 331 8.0 15.0 0.00 0.00 0.00 33 1009.9
20260507230907 58 350 8.0 15.0 0.00 0.00 0.00 34 1009.9
20260507230816 58 321 7.0 15.0 0.00 0.00 0.00 34 1010.1
20260507230719 58 317 5.0 15.0 0.00 0.00 0.00 35 1009.9
20260507230624 58 301 7.0 15.0 0.00 0.00 0.00 36 1010.0
20260507230529 58 294 9.0 15.0 0.00 0.00 0.00 34 1010.0
20260507230405 58 293 10.0 15.0 0.00 0.00 0.00 34 1010.0
20260507230308 58 324 10.0 15.0 0.00 0.00 0.00 36 1010.0
20260507230216 58 306 10.0 15.0 0.00 0.00 0.00 34 1009.9
20260507230121 57 320 10.0 15.0 0.00 0.00 0.00 34 1010.0
20260507230006 58 305 10.0 15.0 0.00 0.00 0.00 35 1010.0
20260507225909 58 272 11.0 15.0 0.00 0.00 0.00 33 1009.9
20260507225814 58 327 11.0 14.0 0.00 0.00 0.00 35 1010.0
20260507225718 58 293 10.0 14.0 0.00 0.00 0.00 35 1009.9
20260507225626 58 290 9.0 13.0 0.00 0.00 0.00 35 1009.9
20260507225528 58 288 9.0 13.0 0.00 0.00 0.00 35 1010.1
20260507225406 58 306 8.0 13.0 0.00 0.00 0.00 34 1010.0
20260507225310 58 304 9.0 13.0 0.00 0.00 0.00 35 1010.0
20260507225235 58 279 10.0 13.0 0.00 0.00 0.00 35 1010.1
20260507225119 58 304 8.0 13.0 0.00 0.00 0.00 32 1010.0
20260507225024 58 296 8.0 13.0 0.00 0.00 0.00 34 1010.1
20260507224930 58 342 9.0 13.0 0.00 0.00 0.00 33 1010.1
20260507224813 58 316 8.0 12.0 0.00 0.00 0.00 32 1010.2
20260507224738 58 346 7.0 12.0 0.00 0.00 0.00 32 1010.1
20260507224620 58 24 7.0 12.0 0.00 0.00 0.00 33 1010.3
20260507224524 58 302 7.0 12.0 0.00 0.00 0.00 32 1010.2
20260507224409 58 360 7.0 13.0 0.00 0.00 0.00 34 1010.2
20260507224312 58 355 6.0 16.0 0.00 0.00 0.00 35 1010.2
20260507224240 58 288 6.0 16.0 0.00 0.00 0.00 37 1010.2
20260507224143 58 323 7.0 16.0 0.00 0.00 0.00 36 1010.3
20260507224026 58 286 8.0 17.0 0.00 0.00 0.00 35 1010.2
20260507223930 57 309 8.0 17.0 0.00 0.00 0.00 33 1010.2
20260507223814 57 355 8.0 20.0 0.00 0.00 0.00 34 1010.2
20260507223737 57 300 10.0 20.0 0.00 0.00 0.00 33 1010.2
20260507223620 57 289 12.0 20.0 0.00 0.00 0.00 35 1010.1
20260507223544 57 311 11.0 20.0 0.00 0.00 0.00 36 1010.2
20260507223430 57 287 11.0 20.0 0.00 0.00 0.00 36 1010.2
20260507223332 57 272 12.0 20.0 0.00 0.00 0.00 34 1010.2
20260507223210 57 292 14.0 20.0 0.00 0.00 0.00 35 1010.3
20260507223114 57 298 15.0 20.0 0.00 0.00 0.00 35 1010.2
20260507223019 57 291 15.0 20.0 0.00 0.00 0.00 34 1010.1
20260507222921 57 298 15.0 20.0 0.00 0.00 0.00 33 1010.1
20260507222810 57 304 16.0 20.0 0.00 0.00 0.00 33 1010.1
20260507222714 57 290 14.0 20.0 0.00 0.00 0.00 34 1010.1
20260507222619 58 287 12.0 18.0 0.00 0.00 0.00 33 1010.2
20260507222524 58 317 12.0 18.0 0.00 0.00 0.00 33 1010.2
20260507222429 58 296 13.0 18.0 0.00 0.00 0.00 32 1010.2
20260507222311 58 301 12.0 17.0 0.00 0.00 0.00 33 1010.2
20260507222236 58 308 9.0 16.0 0.00 0.00 0.00 33 1010.3
20260507222123 58 296 9.0 16.0 0.00 0.00 0.00 33 1010.3
20260507222028 58 322 8.0 16.0 0.00 0.00 0.00 33 1010.4
20260507221911 58 26 9.0 16.0 0.00 0.00 0.00 32 1010.4
20260507221815 58 355 9.0 16.0 0.00 0.00 0.00 34 1010.5
20260507221738 58 295 9.0 16.0 0.00 0.00 0.00 34 1010.4
20260507221621 58 288 10.0 16.0 0.00 0.00 0.00 34 1010.3
20260507221524 58 281 12.0 16.0 0.00 0.00 0.00 32 1010.3
20260507221413 58 275 11.0 16.0 0.00 0.00 0.00 34 1010.4
20260507221337 58 289 7.0 16.0 0.00 0.00 0.00 35 1010.4
20260507221240 58 321 5.0 12.0 0.00 0.00 0.00 34 1010.3
20260507221123 58 334 5.0 12.0 0.00 0.00 0.00 33 1010.4
20260507221027 58 39 4.0 15.0 0.00 0.00 0.00 34 1010.4
20260507220952 58 38 3.0 15.0 0.00 0.00 0.00 34 1010.4
20260507220807 58 75 7.0 15.0 0.00 0.00 0.00 30 1010.4
20260507220731 58 41 7.0 15.0 0.00 0.00 0.00 32 1010.5
20260507220618 58 15 6.0 15.0 0.00 0.00 0.00 32 1010.5
20260507220522 58 74 7.0 15.0 0.00 0.00 0.00 32 1010.5
20260507220407 58 9 9.0 15.0 0.00 0.00 0.00 32 1010.5
20260507220312 58 15 9.0 16.0 0.00 0.00 0.00 31 1010.6
20260507220215 58 360 9.0 20.0 0.00 0.00 0.00 32 1010.6
20260507220120 58 345 7.0 20.0 0.00 0.00 0.00 34 1010.6
20260507220027 58 360 6.0 20.0 0.00 0.00 0.00 37 1010.5
20260507215931 58 310 7.0 20.0 0.00 0.00 0.00 33 1010.5
20260507215807 58 328 11.0 20.0 0.00 0.00 0.00 32 1010.6
20260507215712 59 338 11.0 20.0 0.00 0.00 0.00 31 1010.6
20260507215616 59 324 12.0 20.0 0.00 0.00 0.00 32 1010.7
20260507215520 59 355 11.0 20.0 0.00 0.00 0.00 34 1010.7
20260507215407 59 347 11.0 17.0 0.00 0.00 0.00 33 1010.6
20260507215330 58 309 11.0 17.0 0.00 0.00 0.00 32 1010.6
20260507215254 58 342 11.0 17.0 0.00 0.00 0.00 33 1010.5
20260507215109 58 331 8.0 18.0 0.00 0.00 0.00 34 1010.7
20260507215013 58 13 5.0 18.0 0.00 0.00 0.00 35 1010.6
20260507214936 58 300 7.0 18.0 0.00 0.00 0.00 34 1010.5
20260507214820 58 292 9.0 18.0 0.00 0.00 0.00 33 1010.6
20260507214708 58 308 7.0 18.0 0.00 0.00 0.00 32 1010.5
20260507214613 58 344 7.0 18.0 0.00 0.00 0.00 34 1010.6
20260507214536 58 341 10.0 18.0 0.00 0.00 0.00 34 1010.6
20260507214420 58 328 12.0 18.0 0.00 0.00 0.00 37 1010.6
20260507214325 58 303 13.0 18.0 0.00 0.00 0.00 34 1010.6
20260507214211 58 288 12.0 18.0 0.00 0.00 0.00 34 1010.5
20260507214136 58 329 11.0 17.0 0.00 0.00 0.00 34 1010.6
20260507214025 58 316 10.0 14.0 0.00 0.00 0.00 36 1010.5
20260507213910 58 302 10.0 15.0 0.00 0.00 0.00 33 1010.5
20260507213815 58 312 7.0 15.0 0.00 0.00 0.00 34 1010.5
20260507213721 58 311 6.0 15.0 0.00 0.00 0.00 34 1010.5
20260507213607 58 270 4.0 15.0 0.00 0.00 0.00 34 1010.5
20260507213516 58 295 3.0 15.0 0.00 0.00 0.00 34 1010.6
20260507213421 58 284 5.0 15.0 0.00 0.00 0.00 33 1010.5